Wetterdaten: Samstag, 06.06.2009
Datum Zeit Temp. Innen Temp. Aussen UV X Diff Temp. Feuchte Inne Feuchte Auss Sonnenschein Luftdruck Regen ab 0,1 Wind Sonnenschein Windben
06.06.2009 00:00 18,9 C 10,7 C 0,0 UV-I 0,0 C 44 % 67 % 0 % 1006,4 hPa 0,0 l/m 0,0 km/h (0 Bft) 0 min 0,0 km/h (0 Bft)
06.06.2009 00:02 18,9 C 10,7 C 0,0 UV-I 0,0 C 44 % 67 % 0 % 1006,4 hPa 0,0 l/m 0,0 km/h (0 Bft) 0 min 0,0 km/h (0 Bft)
06.06.2009 00:04 18,9 C 10,7 C 0,0 UV-I 0,0 C 44 % 67 % 0 % 1006,4 hPa 0,0 l/m 0,0 km/h (0 Bft) 0 min 0,0 km/h (0 Bft)
06.06.2009 00:06 18,9 C 10,6 C 0,0 UV-I 0,0 C 44 % 67 % 0 % 1006,4 hPa 0,0 l/m 0,0 km/h (0 Bft) 0 min 0,0 km/h (0 Bft)
06.06.2009 00:08 18,9 C 10,5 C 0,0 UV-I 0,0 C 44 % 67 % 0 % 1006,4 hPa 0,0 l/m 0,0 km/h (0 Bft) 0 min 0,0 km/h (0 Bft)
06.06.2009 00:10 18,9 C 10,4 C 0,0 UV-I 0,0 C 44 % 68 % 0 % 1006,4 hPa 0,0 l/m 0,0 km/h (0 Bft) 0 min 0,0 km/h (0 Bft)
06.06.2009 00:12 18,8 C 10,5 C 0,0 UV-I 0,0 C 44 % 68 % 0 % 1006,4 hPa 0,0 l/m 0,0 km/h (0 Bft) 0 min 0,0 km/h (0 Bft)
06.06.2009 00:14 18,8 C 10,4 C 0,0 UV-I 0,0 C 44 % 68 % 0 % 1006,4 hPa 0,0 l/m 0,0 km/h (0 Bft) 0 min 0,0 km/h (0 Bft)
06.06.2009 00:16 18,8 C 10,3 C 0,0 UV-I 0,0 C 44 % 68 % 0 % 1006,4 hPa 0,0 l/m 0,0 km/h (0 Bft) 0 min 0,0 km/h (0 Bft)
06.06.2009 00:18 18,8 C 10,2 C 0,0 UV-I 0,0 C 44 % 68 % 0 % 1006,5 hPa 0,0 l/m 0,0 km/h (0 Bft) 0 min 0,0 km/h (0 Bft)
06.06.2009 00:20 18,8 C 10,3 C 0,0 UV-I 0,0 C 44 % 68 % 0 % 1006,5 hPa 0,0 l/m 0,0 km/h (0 Bft) 0 min 0,0 km/h (0 Bft)
06.06.2009 00:22 18,8 C 10,1 C 0,0 UV-I 0,0 C 44 % 69 % 0 % 1006,5 hPa 0,0 l/m 0,0 km/h (0 Bft) 0 min 0,0 km/h (0 Bft)
06.06.2009 00:24 18,8 C 10,1 C 0,0 UV-I 0,0 C 44 % 69 % 0 % 1006,5 hPa 0,0 l/m 0,0 km/h (0 Bft) 0 min 0,0 km/h (0 Bft)
06.06.2009 00:26 18,8 C 10,0 C 0,0 UV-I 0,0 C 44 % 69 % 0 % 1006,5 hPa 0,0 l/m 0,0 km/h (0 Bft) 0 min 0,0 km/h (0 Bft)
06.06.2009 00:28 18,8 C 10,0 C 0,0 UV-I 0,0 C 44 % 69 % 0 % 1006,5 hPa 0,0 l/m 0,0 km/h (0 Bft) 0 min 0,0 km/h (0 Bft)
06.06.2009 00:30 18,8 C 9,9 C 0,0 UV-I 0,0 C 44 % 69 % 0 % 1006,5 hPa 0,0 l/m 0,0 km/h (0 Bft) 0 min 0,0 km/h (0 Bft)
06.06.2009 00:32 18,8 C 9,9 C 0,0 UV-I 0,0 C 44 % 69 % 0 % 1006,5 hPa 0,0 l/m 0,0 km/h (0 Bft) 0 min 0,0 km/h (0 Bft)
06.06.2009 00:34 18,7 C 9,9 C 0,0 UV-I 0,0 C 44 % 69 % 0 % 1006,5 hPa 0,0 l/m 0,0 km/h (0 Bft) 0 min 0,0 km/h (0 Bft)
06.06.2009 00:36 18,7 C 9,9 C 0,0 UV-I 0,0 C 44 % 69 % 0 % 1006,5 hPa 0,0 l/m 0,0 km/h (0 Bft) 0 min 0,0 km/h (0 Bft)
06.06.2009 00:38 18,7 C 9,7 C 0,0 UV-I 0,0 C 44 % 69 % 0 % 1005,8 hPa 0,0 l/m 0,0 km/h (0 Bft) 0 min 0,0 km/h (0 Bft)
06.06.2009 00:40 18,7 C 9,6 C 0,0 UV-I 0,0 C 44 % 69 % 0 % 1005,8 hPa 0,0 l/m 0,0 km/h (0 Bft) 0 min 0,0 km/h (0 Bft)
06.06.2009 00:42 18,7 C 9,7 C 0,0 UV-I 0,0 C 44 % 70 % 0 % 1005,8 hPa 0,0 l/m 0,0 km/h (0 Bft) 0 min 0,0 km/h (0 Bft)
06.06.2009 00:44 18,7 C 9,6 C 0,0 UV-I 0,0 C 44 % 70 % 0 % 1005,8 hPa 0,0 l/m 0,0 km/h (0 Bft) 0 min 0,0 km/h (0 Bft)
06.06.2009 00:46 18,7 C 9,5 C 0,0 UV-I 0,0 C 44 % 70 % 0 % 1005,8 hPa 0,0 l/m 0,0 km/h (0 Bft) 0 min 0,0 km/h (0 Bft)
06.06.2009 00:48 18,6 C 9,5 C 0,0 UV-I 0,0 C 44 % 70 % 0 % 1005,8 hPa 0,0 l/m 0,0 km/h (0 Bft) 0 min 0,0 km/h (0 Bft)
06.06.2009 00:50 18,6 C 9,5 C 0,0 UV-I 0,0 C 44 % 70 % 0 % 1005,8 hPa 0,0 l/m 0,0 km/h (0 Bft) 0 min 0,0 km/h (0 Bft)
06.06.2009 00:52 18,6 C 9,5 C 0,0 UV-I 0,0 C 44 % 70 % 0 % 1005,8 hPa 0,0 l/m 0,0 km/h (0 Bft) 0 min 0,0 km/h (0 Bft)
06.06.2009 00:54 18,6 C 9,3 C 0,0 UV-I 0,0 C 44 % 70 % 0 % 1005,8 hPa 0,0 l/m 0,0 km/h (0 Bft) 0 min 0,0 km/h (0 Bft)
06.06.2009 00:56 18,6 C 9,3 C 0,0 UV-I 0,0 C 44 % 71 % 0 % 1005,8 hPa 0,0 l/m 0,0 km/h (0 Bft) 0 min 0,0 km/h (0 Bft)
06.06.2009 00:58 18,6 C 9,2 C 0,0 UV-I 0,0 C 44 % 71 % 0 % 1005,5 hPa 0,0 l/m 0,0 km/h (0 Bft) 0 min 0,0 km/h (0 Bft)
06.06.2009 01:00 18,6 C 9,2 C 0,0 UV-I 0,0 C 44 % 71 % 0 % 1005,5 hPa 0,0 l/m 0,0 km/h (0 Bft) 0 min 0,0 km/h (0 Bft)
06.06.2009 01:02 18,6 C 9,3 C 0,0 UV-I 0,0 C 44 % 71 % 0 % 1005,5 hPa 0,0 l/m 0,0 km/h (0 Bft) 0 min 0,0 km/h (0 Bft)
06.06.2009 01:04 18,6 C 9,2 C 0,0 UV-I 0,0 C 44 % 71 % 0 % 1005,5 hPa 0,0 l/m 0,0 km/h (0 Bft) 0 min 0,0 km/h (0 Bft)
06.06.2009 01:06 18,5 C 9,1 C 0,0 UV-I 0,0 C 44 % 71 % 0 % 1005,5 hPa 0,0 l/m 0,0 km/h (0 Bft) 0 min 0,0 km/h (0 Bft)
06.06.2009 01:08 18,5 C 9,1 C 0,0 UV-I 0,0 C 44 % 71 % 0 % 1005,5 hPa 0,0 l/m 0,0 km/h (0 Bft) 0 min 0,0 km/h (0 Bft)
06.06.2009 01:10 18,5 C 9,1 C 0,0 UV-I 0,0 C 44 % 71 % 0 % 1005,5 hPa 0,0 l/m 0,0 km/h (0 Bft) 0 min 0,0 km/h (0 Bft)
06.06.2009 01:12 18,5 C 9,1 C 0,0 UV-I 0,0 C 44 % 71 % 0 % 1005,5 hPa 0,0 l/m 0,0 km/h (0 Bft) 0 min 0,0 km/h (0 Bft)
06.06.2009 01:14 18,5 C 9,1 C 0,0 UV-I 0,0 C 44 % 71 % 0 % 1005,5 hPa 0,0 l/m 0,0 km/h (0 Bft) 0 min 0,0 km/h (0 Bft)
06.06.2009 01:16 18,5 C 8,9 C 0,0 UV-I 0,0 C 44 % 71 % 0 % 1005,5 hPa 0,0 l/m 0,0 km/h (0 Bft) 0 min 0,0 km/h (0 Bft)
06.06.2009 01:18 18,5 C 8,9 C 0,0 UV-I 0,0 C 44 % 72 % 0 % 1005,4 hPa 0,0 l/m 0,0 km/h (0 Bft) 0 min 0,0 km/h (0 Bft)
06.06.2009 01:20 18,4 C 8,8 C 0,0 UV-I 0,0 C 44 % 72 % 0 % 1005,4 hPa 0,0 l/m 0,0 km/h (0 Bft) 0 min 0,0 km/h (0 Bft)
06.06.2009 01:22 18,4 C 8,9 C 0,0 UV-I 0,0 C 44 % 72 % 0 % 1005,4 hPa 0,0 l/m 0,0 km/h (0 Bft) 0 min 0,0 km/h (0 Bft)
06.06.2009 01:24 18,4 C 8,8 C 0,0 UV-I 0,0 C 44 % 72 % 0 % 1005,4 hPa 0,0 l/m 0,0 km/h (0 Bft) 0 min 0,0 km/h (0 Bft)
06.06.2009 01:26 18,4 C 8,8 C 0,0 UV-I 0,0 C 44 % 72 % 0 % 1005,4 hPa 0,0 l/m 0,0 km/h (0 Bft) 0 min 0,0 km/h (0 Bft)
06.06.2009 01:28 18,4 C 8,7 C 0,0 UV-I 0,0 C 44 % 73 % 0 % 1005,4 hPa 0,0 l/m 0,0 km/h (0 Bft) 0 min 0,0 km/h (0 Bft)
06.06.2009 01:30 18,4 C 8,7 C 0,0 UV-I 0,0 C 44 % 73 % 0 % 1005,4 hPa 0,0 l/m 0,0 km/h (0 Bft) 0 min 0,0 km/h (0 Bft)
06.06.2009 01:32 18,4 C 8,7 C 0,0 UV-I 0,0 C 44 % 73 % 0 % 1005,4 hPa 0,0 l/m 0,0 km/h (0 Bft) 0 min 0,0 km/h (0 Bft)
06.06.2009 01:34 18,4 C 8,7 C 0,0 UV-I 0,0 C 44 % 73 % 0 % 1005,4 hPa 0,0 l/m 0,0 km/h (0 Bft) 0 min 0,0 km/h (0 Bft)
06.06.2009 01:36 18,4 C 8,6 C 0,0 UV-I 0,0 C 44 % 73 % 0 % 1005,4 hPa 0,0 l/m 0,0 km/h (0 Bft) 0 min 0,0 km/h (0 Bft)
06.06.2009 01:38 18,4 C 8,6 C 0,0 UV-I 0,0 C 44 % 73 % 0 % 1005,4 hPa 0,0 l/m 0,0 km/h (0 Bft) 0 min 0,0 km/h (0 Bft)
06.06.2009 01:40 18,4 C 8,5 C 0,0 UV-I 0,0 C 44 % 73 % 0 % 1005,4 hPa 0,0 l/m 0,0 km/h (0 Bft) 0 min 0,0 km/h (0 Bft)
06.06.2009 01:42 18,4 C 8,5 C 0,0 UV-I 0,0 C 44 % 73 % 0 % 1005,4 hPa 0,0 l/m 0,0 km/h (0 Bft) 0 min 0,0 km/h (0 Bft)
06.06.2009 01:44 18,4 C 8,4 C 0,0 UV-I 0,0 C 44 % 73 % 0 % 1005,4 hPa 0,0 l/m 0,0 km/h (0 Bft) 0 min 0,0 km/h (0 Bft)
06.06.2009 01:46 18,4 C 8,4 C 0,0 UV-I 0,0 C 44 % 73 % 0 % 1005,4 hPa 0,0 l/m 0,0 km/h (0 Bft) 0 min 0,0 km/h (0 Bft)
06.06.2009 01:48 18,4 C 8,5 C 0,0 UV-I 0,0 C 44 % 73 % 0 % 1005,4 hPa 0,0 l/m 0,0 km/h (0 Bft) 0 min 0,0 km/h (0 Bft)
06.06.2009 01:50 18,4 C 8,4 C 0,0 UV-I 0,0 C 44 % 73 % 0 % 1005,4 hPa 0,0 l/m 0,0 km/h (0 Bft) 0 min 0,0 km/h (0 Bft)
06.06.2009 01:52 18,2 C 8,4 C 0,0 UV-I 0,0 C 44 % 73 % 0 % 1005,4 hPa 0,0 l/m 0,0 km/h (0 Bft) 0 min 0,0 km/h (0 Bft)
06.06.2009 01:54 18,2 C 8,3 C 0,0 UV-I 0,0 C 45 % 74 % 0 % 1005,4 hPa 0,0 l/m 0,0 km/h (0 Bft) 0 min 0,0 km/h (0 Bft)
06.06.2009 01:56 18,2 C 8,3 C 0,0 UV-I 0,0 C 45 % 74 % 0 % 1005,4 hPa 0,0 l/m 0,0 km/h (0 Bft) 0 min 0,0 km/h (0 Bft)
06.06.2009 01:58 18,3 C 8,2 C 0,0 UV-I 0,0 C 45 % 74 % 0 % 1004,8 hPa 0,0 l/m 0,0 km/h (0 Bft) 0 min 0,0 km/h (0 Bft)
06.06.2009 02:00 18,3 C 8,3 C 0,0 UV-I 0,0 C 45 % 74 % 0 % 1004,8 hPa 0,0 l/m 0,0 km/h (0 Bft) 0 min 0,0 km/h (0 Bft)
06.06.2009 02:02 18,3 C 8,2 C 0,0 UV-I 0,0 C 45 % 74 % 0 % 1004,8 hPa 0,0 l/m 0,0 km/h (0 Bft) 0 min 0,0 km/h (0 Bft)
06.06.2009 02:04 18,3 C 8,1 C 0,0 UV-I 0,0 C 45 % 74 % 0 % 1004,8 hPa 0,0 l/m 0,0 km/h (0 Bft) 0 min 0,0 km/h (0 Bft)
06.06.2009 02:06 18,3 C 8,1 C 0,0 UV-I 0,0 C 45 % 74 % 0 % 1004,8 hPa 0,0 l/m 0,0 km/h (0 Bft) 0 min 0,0 km/h (0 Bft)
06.06.2009 02:08 18,3 C 8,1 C 0,0 UV-I 0,0 C 45 % 75 % 0 % 1004,8 hPa 0,0 l/m 0,0 km/h (0 Bft) 0 min 0,0 km/h (0 Bft)
06.06.2009 02:10 18,3 C 8,0 C 0,0 UV-I 0,0 C 45 % 75 % 0 % 1004,8 hPa 0,0 l/m 0,0 km/h (0 Bft) 0 min 0,0 km/h (0 Bft)
06.06.2009 02:12 18,3 C 8,0 C 0,0 UV-I 0,0 C 45 % 75 % 0 % 1004,8 hPa 0,0 l/m 0,0 km/h (0 Bft) 0 min 0,0 km/h (0 Bft)
06.06.2009 02:14 18,3 C 8,0 C 0,0 UV-I 0,0 C 45 % 75 % 0 % 1004,8 hPa 0,0 l/m 0,0 km/h (0 Bft) 0 min 0,0 km/h (0 Bft)
06.06.2009 02:16 18,2 C 8,0 C 0,0 UV-I 0,0 C 45 % 75 % 0 % 1004,8 hPa 0,0 l/m 0,0 km/h (0 Bft) 0 min 0,0 km/h (0 Bft)
06.06.2009 02:18 18,2 C 7,9 C 0,0 UV-I 0,0 C 45 % 75 % 0 % 1004,4 hPa 0,0 l/m 0,0 km/h (0 Bft) 0 min 0,0 km/h (0 Bft)
06.06.2009 02:20 18,2 C 7,9 C 0,0 UV-I 0,0 C 45 % 76 % 0 % 1004,4 hPa 0,0 l/m 0,0 km/h (0 Bft) 0 min 0,0 km/h (0 Bft)
06.06.2009 02:22 18,2 C 7,9 C 0,0 UV-I 0,0 C 45 % 76 % 0 % 1004,4 hPa 0,0 l/m 0,0 km/h (0 Bft) 0 min 0,0 km/h (0 Bft)
06.06.2009 02:24 18,2 C 7,9 C 0,0 UV-I 0,0 C 45 % 76 % 0 % 1004,4 hPa 0,0 l/m 0,0 km/h (0 Bft) 0 min 0,0 km/h (0 Bft)
06.06.2009 02:26 18,2 C 7,8 C 0,0 UV-I 0,0 C 45 % 76 % 0 % 1004,4 hPa 0,0 l/m 0,0 km/h (0 Bft) 0 min 0,0 km/h (0 Bft)
06.06.2009 02:28 18,2 C 7,9 C 0,0 UV-I 0,0 C 45 % 76 % 0 % 1004,4 hPa 0,0 l/m 0,0 km/h (0 Bft) 0 min 0,0 km/h (0 Bft)
06.06.2009 02:30 18,2 C 7,9 C 0,0 UV-I 0,0 C 45 % 76 % 0 % 1004,4 hPa 0,0 l/m 0,0 km/h (0 Bft) 0 min 0,0 km/h (0 Bft)
06.06.2009 02:32 18,2 C 7,8 C 0,0 UV-I 0,0 C 45 % 76 % 0 % 1004,4 hPa 0,0 l/m 0,0 km/h (0 Bft) 0 min 0,0 km/h (0 Bft)
06.06.2009 02:34 18,2 C 7,7 C 0,0 UV-I 0,0 C 45 % 76 % 0 % 1004,4 hPa 0,0 l/m 0,0 km/h (0 Bft) 0 min 0,0 km/h (0 Bft)
06.06.2009 02:36 18,2 C 7,7 C 0,0 UV-I 0,0 C 45 % 76 % 0 % 1004,4 hPa 0,0 l/m 0,0 km/h (0 Bft) 0 min 0,0 km/h (0 Bft)
06.06.2009 02:38 18,2 C 7,7 C 0,0 UV-I 0,0 C 45 % 76 % 0 % 1004,2 hPa 0,0 l/m 0,0 km/h (0 Bft) 0 min 0,0 km/h (0 Bft)
06.06.2009 02:40 18,2 C 7,7 C 0,0 UV-I 0,0 C 45 % 76 % 0 % 1004,2 hPa 0,0 l/m 0,0 km/h (0 Bft) 0 min 0,0 km/h (0 Bft)
06.06.2009 02:42 18,2 C 7,6 C 0,0 UV-I 0,0 C 45 % 76 % 0 % 1004,2 hPa 0,0 l/m 0,0 km/h (0 Bft) 0 min 0,0 km/h (0 Bft)
06.06.2009 02:44 18,2 C 7,6 C 0,0 UV-I 0,0 C 45 % 76 % 0 % 1004,2 hPa 0,0 l/m 0,0 km/h (0 Bft) 0 min 0,0 km/h (0 Bft)
06.06.2009 02:46 18,2 C 7,6 C 0,0 UV-I 0,0 C 45 % 77 % 0 % 1004,2 hPa 0,0 l/m 0,0 km/h (0 Bft) 0 min 0,0 km/h (0 Bft)
06.06.2009 02:48 18,2 C 7,7 C 0,0 UV-I 0,0 C 45 % 77 % 0 % 1004,2 hPa 0,0 l/m 0,0 km/h (0 Bft) 0 min 0,0 km/h (0 Bft)
06.06.2009 02:50 18,2 C 7,6 C 0,0 UV-I 0,0 C 45 % 77 % 0 % 1004,2 hPa 0,0 l/m 0,0 km/h (0 Bft) 0 min 0,0 km/h (0 Bft)
06.06.2009 02:52 18,1 C 7,6 C 0,0 UV-I 0,0 C 45 % 77 % 0 % 1004,2 hPa 0,0 l/m 0,0 km/h (0 Bft) 0 min 0,0 km/h (0 Bft)
06.06.2009 02:54 18,1 C 7,5 C 0,0 UV-I 0,0 C 45 % 77 % 0 % 1004,2 hPa 0,0 l/m 0,0 km/h (0 Bft) 0 min 0,0 km/h (0 Bft)
06.06.2009 02:56 18,1 C 7,5 C 0,0 UV-I 0,0 C 45 % 77 % 0 % 1004,2 hPa 0,0 l/m 0,0 km/h (0 Bft) 0 min 0,0 km/h (0 Bft)
06.06.2009 02:58 18,1 C 7,5 C 0,0 UV-I 0,0 C 45 % 77 % 0 % 1004,1 hPa 0,0 l/m 0,0 km/h (0 Bft) 0 min 0,0 km/h (0 Bft)
06.06.2009 03:00 18,1 C 7,5 C 0,0 UV-I 0,0 C 45 % 77 % 0 % 1004,1 hPa 0,0 l/m 0,0 km/h (0 Bft) 0 min 0,0 km/h (0 Bft)
06.06.2009 03:02 18,1 C 7,4 C 0,0 UV-I 0,0 C 45 % 77 % 0 % 1004,1 hPa 0,0 l/m 0,0 km/h (0 Bft) 0 min 0,0 km/h (0 Bft)
06.06.2009 03:04 18,1 C 7,4 C 0,0 UV-I 0,0 C 45 % 77 % 0 % 1004,1 hPa 0,0 l/m 0,0 km/h (0 Bft) 0 min 0,0 km/h (0 Bft)
06.06.2009 03:06 18,1 C 7,5 C 0,0 UV-I 0,0 C 45 % 77 % 0 % 1004,1 hPa 0,0 l/m 0,0 km/h (0 Bft) 0 min 0,0 km/h (0 Bft)
06.06.2009 03:08 18,0 C 7,5 C 0,0 UV-I 0,0 C 45 % 78 % 0 % 1004,1 hPa 0,0 l/m 0,0 km/h (0 Bft) 0 min 0,0 km/h (0 Bft)
06.06.2009 03:10 18,0 C 7,4 C 0,0 UV-I 0,0 C 45 % 78 % 0 % 1004,1 hPa 0,0 l/m 0,0 km/h (0 Bft) 0 min 0,0 km/h (0 Bft)
06.06.2009 03:12 18,0 C 7,4 C 0,0 UV-I 0,0 C 45 % 78 % 0 % 1004,1 hPa 0,0 l/m 0,0 km/h (0 Bft) 0 min 0,0 km/h (0 Bft)
06.06.2009 03:14 18,0 C 7,3 C 0,0 UV-I 0,0 C 45 % 78 % 0 % 1004,1 hPa 0,0 l/m 0,0 km/h (0 Bft) 0 min 0,0 km/h (0 Bft)
06.06.2009 03:16 18,0 C 7,3 C 0,0 UV-I 0,0 C 45 % 78 % 0 % 1004,1 hPa 0,0 l/m 0,0 km/h (0 Bft) 0 min 0,0 km/h (0 Bft)
06.06.2009 03:18 18,0 C 7,3 C 0,0 UV-I 0,0 C 45 % 78 % 0 % 1004,1 hPa 0,0 l/m 0,0 km/h (0 Bft) 0 min 0,0 km/h (0 Bft)
06.06.2009 03:20 18,0 C 7,2 C 0,0 UV-I 0,0 C 45 % 78 % 0 % 1004,1 hPa 0,0 l/m 0,0 km/h (0 Bft) 0 min 0,0 km/h (0 Bft)
06.06.2009 03:22 18,0 C 7,2 C 0,0 UV-I 0,0 C 45 % 78 % 0 % 1004,1 hPa 0,0 l/m 0,0 km/h (0 Bft) 0 min 0,0 km/h (0 Bft)
06.06.2009 03:24 18,0 C 7,2 C 0,0 UV-I 0,0 C 45 % 78 % 0 % 1004,1 hPa 0,0 l/m 0,0 km/h (0 Bft) 0 min 0,0 km/h (0 Bft)
06.06.2009 03:26 18,0 C 7,3 C 0,0 UV-I 0,0 C 45 % 78 % 0 % 1004,1 hPa 0,0 l/m 0,0 km/h (0 Bft) 0 min 0,0 km/h (0 Bft)
06.06.2009 03:28 18,0 C 7,2 C 0,0 UV-I 0,0 C 45 % 78 % 0 % 1004,1 hPa 0,0 l/m 0,0 km/h (0 Bft) 0 min 0,0 km/h (0 Bft)
06.06.2009 03:30 18,0 C 7,2 C 0,0 UV-I 0,0 C 45 % 79 % 0 % 1004,1 hPa 0,0 l/m 0,0 km/h (0 Bft) 0 min 0,0 km/h (0 Bft)
06.06.2009 03:32 18,0 C 7,2 C 0,0 UV-I 0,0 C 45 % 79 % 0 % 1004,1 hPa 0,0 l/m 0,0 km/h (0 Bft) 0 min 0,0 km/h (0 Bft)
06.06.2009 03:34 18,0 C 7,2 C 0,0 UV-I 0,0 C 45 % 79 % 0 % 1004,1 hPa 0,0 l/m 0,0 km/h (0 Bft) 0 min 0,0 km/h (0 Bft)
06.06.2009 03:36 18,0 C 7,1 C 0,0 UV-I 0,0 C 45 % 79 % 0 % 1004,1 hPa 0,0 l/m 0,0 km/h (0 Bft) 0 min 0,0 km/h (0 Bft)
06.06.2009 03:38 17,9 C 7,1 C 0,0 UV-I 0,0 C 45 % 79 % 0 % 1003,9 hPa 0,0 l/m 0,0 km/h (0 Bft) 0 min 0,0 km/h (0 Bft)
06.06.2009 03:40 17,9 C 7,1 C 0,0 UV-I 0,0 C 45 % 79 % 0 % 1003,9 hPa 0,0 l/m 0,0 km/h (0 Bft) 0 min 0,0 km/h (0 Bft)
06.06.2009 03:42 17,9 C 7,1 C 0,0 UV-I 0,0 C 45 % 79 % 0 % 1003,9 hPa 0,0 l/m 0,0 km/h (0 Bft) 0 min 0,0 km/h (0 Bft)
06.06.2009 03:44 17,9 C 7,1 C 0,0 UV-I 0,0 C 45 % 79 % 0 % 1003,9 hPa 0,0 l/m 0,0 km/h (0 Bft) 0 min 0,0 km/h (0 Bft)
06.06.2009 03:46 17,9 C 7,0 C 0,0 UV-I 0,0 C 45 % 79 % 0 % 1003,9 hPa 0,0 l/m 0,0 km/h (0 Bft) 0 min 0,0 km/h (0 Bft)
06.06.2009 03:48 17,9 C 7,0 C 0,0 UV-I 0,0 C 45 % 79 % 0 % 1003,9 hPa 0,0 l/m 0,0 km/h (0 Bft) 0 min 0,0 km/h (0 Bft)
06.06.2009 03:50 17,9 C 7,1 C 0,0 UV-I 0,0 C 45 % 79 % 0 % 1003,9 hPa 0,0 l/m 0,0 km/h (0 Bft) 0 min 0,0 km/h (0 Bft)
06.06.2009 03:52 17,9 C 7,1 C 0,0 UV-I 0,0 C 45 % 79 % 0 % 1003,9 hPa 0,0 l/m 0,0 km/h (0 Bft) 0 min 0,0 km/h (0 Bft)
06.06.2009 03:54 17,9 C 7,1 C 0,0 UV-I 0,0 C 45 % 79 % 0 % 1003,9 hPa 0,0 l/m 0,0 km/h (0 Bft) 0 min 0,0 km/h (0 Bft)
06.06.2009 03:56 17,9 C 7,0 C 0,0 UV-I 0,0 C 45 % 79 % 0 % 1003,9 hPa 0,0 l/m 0,0 km/h (0 Bft) 0 min 0,0 km/h (0 Bft)
06.06.2009 03:58 17,9 C 6,9 C 0,0 UV-I 0,0 C 45 % 79 % 0 % 1004,0 hPa 0,0 l/m 0,0 km/h (0 Bft) 0 min 0,0 km/h (0 Bft)
06.06.2009 04:00 17,8 C 6,9 C 0,0 UV-I 0,0 C 45 % 79 % 0 % 1004,0 hPa 0,0 l/m 0,0 km/h (0 Bft) 0 min 0,0 km/h (0 Bft)
06.06.2009 04:02 17,9 C 6,9 C 0,0 UV-I 0,0 C 45 % 79 % 0 % 1004,0 hPa 0,0 l/m 0,0 km/h (0 Bft) 0 min 0,0 km/h (0 Bft)
06.06.2009 04:04 17,8 C 6,9 C 0,0 UV-I 0,0 C 45 % 79 % 0 % 1004,0 hPa 0,0 l/m 0,0 km/h (0 Bft) 0 min 0,0 km/h (0 Bft)
06.06.2009 04:06 17,8 C 6,9 C 0,0 UV-I 0,0 C 45 % 79 % 0 % 1004,0 hPa 0,0 l/m 0,0 km/h (0 Bft) 0 min 0,0 km/h (0 Bft)
06.06.2009 04:08 17,8 C 6,9 C 0,0 UV-I 0,0 C 45 % 79 % 0 % 1004,0 hPa 0,0 l/m 0,0 km/h (0 Bft) 0 min 0,0 km/h (0 Bft)
06.06.2009 04:10 17,8 C 6,9 C 0,0 UV-I 0,0 C 45 % 79 % 0 % 1004,0 hPa 0,0 l/m 0,0 km/h (0 Bft) 0 min 0,0 km/h (0 Bft)
06.06.2009 04:12 17,8 C 6,9 C 0,0 UV-I 0,0 C 45 % 80 % 0 % 1004,0 hPa 0,0 l/m 0,0 km/h (0 Bft) 0 min 0,0 km/h (0 Bft)
06.06.2009 04:14 17,8 C 6,9 C 0,0 UV-I 0,0 C 46 % 80 % 0 % 1004,0 hPa 0,0 l/m 0,0 km/h (0 Bft) 0 min 0,0 km/h (0 Bft)
06.06.2009 04:16 17,8 C 6,8 C 0,0 UV-I 0,0 C 46 % 80 % 0 % 1004,0 hPa 0,0 l/m 0,0 km/h (0 Bft) 0 min 0,0 km/h (0 Bft)
06.06.2009 04:18 17,8 C 6,8 C 0,0 UV-I 0,0 C 46 % 80 % 0 % 1003,3 hPa 0,0 l/m 0,0 km/h (0 Bft) 0 min 0,0 km/h (0 Bft)
06.06.2009 04:20 17,8 C 6,8 C 0,0 UV-I 0,0 C 46 % 80 % 0 % 1003,3 hPa 0,0 l/m 0,0 km/h (0 Bft) 0 min 0,0 km/h (0 Bft)
06.06.2009 04:22 17,8 C 6,9 C 0,0 UV-I 0,0 C 46 % 80 % 0 % 1003,3 hPa 0,0 l/m 0,0 km/h (0 Bft) 0 min 0,0 km/h (0 Bft)
06.06.2009 04:24 17,8 C 6,8 C 0,0 UV-I 0,0 C 46 % 80 % 0 % 1003,3 hPa 0,0 l/m 0,0 km/h (0 Bft) 0 min 0,0 km/h (0 Bft)
06.06.2009 04:26 17,8 C 6,9 C 0,0 UV-I 0,0 C 46 % 80 % 0 % 1003,3 hPa 0,0 l/m 0,0 km/h (0 Bft) 0 min 0,0 km/h (0 Bft)
06.06.2009 04:28 17,8 C 6,8 C 0,0 UV-I 0,0 C 46 % 80 % 0 % 1003,3 hPa 0,0 l/m 0,0 km/h (0 Bft) 0 min 0,0 km/h (0 Bft)
06.06.2009 04:30 17,8 C 6,8 C 0,0 UV-I 0,0 C 46 % 80 % 0 % 1003,3 hPa 0,0 l/m 0,0 km/h (0 Bft) 0 min 0,0 km/h (0 Bft)
06.06.2009 04:32 17,8 C 6,8 C 0,0 UV-I 0,0 C 46 % 80 % 0 % 1003,3 hPa 0,0 l/m 0,0 km/h (0 Bft) 0 min 0,0 km/h (0 Bft)
06.06.2009 04:34 17,8 C 6,8 C 0,0 UV-I 0,0 C 46 % 80 % 0 % 1003,3 hPa 0,0 l/m 0,0 km/h (0 Bft) 0 min 0,0 km/h (0 Bft)
06.06.2009 04:36 17,8 C 6,8 C 0,0 UV-I 0,0 C 46 % 80 % 0 % 1003,3 hPa 0,0 l/m 0,0 km/h (0 Bft) 0 min 0,0 km/h (0 Bft)
06.06.2009 04:38 17,8 C 6,7 C 0,0 UV-I 0,0 C 46 % 80 % 0 % 1003,1 hPa 0,0 l/m 0,0 km/h (0 Bft) 0 min 0,0 km/h (0 Bft)
06.06.2009 04:40 17,8 C 6,7 C 0,0 UV-I 0,0 C 46 % 80 % 0 % 1003,1 hPa 0,0 l/m 0,0 km/h (0 Bft) 0 min 0,0 km/h (0 Bft)
06.06.2009 04:42 17,8 C 6,7 C 0,0 UV-I 0,0 C 46 % 80 % 0 % 1003,1 hPa 0,0 l/m 0,0 km/h (0 Bft) 0 min 0,0 km/h (0 Bft)
06.06.2009 04:44 17,8 C 6,7 C 0,0 UV-I 0,0 C 46 % 80 % 0 % 1003,1 hPa 0,0 l/m 0,0 km/h (0 Bft) 0 min 0,0 km/h (0 Bft)
06.06.2009 04:46 17,8 C 6,7 C 0,0 UV-I 0,0 C 46 % 80 % 0 % 1003,1 hPa 0,0 l/m 0,0 km/h (0 Bft) 0 min 0,0 km/h (0 Bft)
06.06.2009 04:48 17,8 C 6,7 C 0,0 UV-I 0,0 C 46 % 81 % 0 % 1003,1 hPa 0,0 l/m 0,0 km/h (0 Bft) 0 min 0,0 km/h (0 Bft)
06.06.2009 04:50 17,7 C 6,6 C 0,0 UV-I 0,0 C 46 % 80 % 0 % 1003,1 hPa 0,0 l/m 0,0 km/h (0 Bft) 0 min 0,0 km/h (0 Bft)
06.06.2009 04:52 17,8 C 6,7 C 0,0 UV-I 0,0 C 46 % 81 % 0 % 1003,1 hPa 0,0 l/m 0,0 km/h (0 Bft) 0 min 0,0 km/h (0 Bft)
06.06.2009 04:54 17,7 C 6,6 C 0,0 UV-I 0,0 C 46 % 80 % 0 % 1003,1 hPa 0,0 l/m 0,0 km/h (0 Bft) 0 min 0,0 km/h (0 Bft)
06.06.2009 04:56 17,7 C 6,7 C 0,0 UV-I 0,0 C 46 % 81 % 0 % 1003,1 hPa 0,0 l/m 0,0 km/h (0 Bft) 0 min 0,0 km/h (0 Bft)
06.06.2009 04:58 17,8 C 6,6 C 0,0 UV-I 0,0 C 46 % 80 % 0 % 1003,2 hPa 0,0 l/m 0,0 km/h (0 Bft) 0 min 0,0 km/h (0 Bft)
06.06.2009 05:00 17,8 C 6,6 C 0,0 UV-I 0,0 C 46 % 80 % 0 % 1003,2 hPa 0,0 l/m 0,0 km/h (0 Bft) 0 min 0,0 km/h (0 Bft)
06.06.2009 05:02 17,8 C 6,7 C 0,0 UV-I 0,0 C 46 % 80 % 0 % 1003,2 hPa 0,0 l/m 0,0 km/h (0 Bft) 0 min 0,0 km/h (0 Bft)
06.06.2009 05:04 17,7 C 6,7 C 0,0 UV-I 0,0 C 46 % 80 % 0 % 1003,2 hPa 0,0 l/m 0,0 km/h (0 Bft) 0 min 0,0 km/h (0 Bft)
06.06.2009 05:08 17,7 C 6,6 C 0,0 UV-I 0,0 C 46 % 80 % 0 % 1003,2 hPa 0,0 l/m 0,0 km/h (0 Bft) 0 min 0,0 km/h (0 Bft)
06.06.2009 05:10 17,7 C 6,7 C 0,0 UV-I 0,0 C 46 % 81 % 0 % 1003,2 hPa 0,0 l/m 0,0 km/h (0 Bft) 0 min 0,0 km/h (0 Bft)
06.06.2009 05:12 17,7 C 6,7 C 0,0 UV-I 0,0 C 46 % 81 % 0 % 1003,2 hPa 0,0 l/m 0,0 km/h (0 Bft) 0 min 0,0 km/h (0 Bft)
06.06.2009 05:14 17,7 C 6,7 C 0,0 UV-I 0,0 C 46 % 81 % 0 % 1003,2 hPa 0,0 l/m 0,0 km/h (0 Bft) 0 min 0,0 km/h (0 Bft)
06.06.2009 05:16 17,7 C 6,7 C 0,0 UV-I 0,0 C 45 % 81 % 0 % 1003,2 hPa 0,0 l/m 0,0 km/h (0 Bft) 0 min 0,0 km/h (0 Bft)
06.06.2009 05:18 17,7 C 6,6 C 0,0 UV-I 0,0 C 45 % 80 % 0 % 1002,7 hPa 0,0 l/m 0,0 km/h (0 Bft) 0 min 0,0 km/h (0 Bft)
06.06.2009 05:20 17,7 C 6,6 C 0,0 UV-I 0,0 C 45 % 80 % 0 % 1002,7 hPa 0,0 l/m 0,0 km/h (0 Bft) 0 min 0,0 km/h (0 Bft)
06.06.2009 05:22 17,7 C 6,6 C 0,0 UV-I 0,0 C 45 % 81 % 0 % 1002,7 hPa 0,0 l/m 0,0 km/h (0 Bft) 0 min 0,0 km/h (0 Bft)
06.06.2009 05:24 17,7 C 6,7 C 0,0 UV-I 0,0 C 45 % 81 % 0 % 1002,7 hPa 0,0 l/m 0,0 km/h (0 Bft) 0 min 0,0 km/h (0 Bft)
06.06.2009 05:26 17,7 C 6,7 C 0,0 UV-I 0,0 C 45 % 81 % 0 % 1002,7 hPa 0,0 l/m 0,0 km/h (0 Bft) 0 min 0,0 km/h (0 Bft)
06.06.2009 05:28 17,7 C 6,6 C 0,0 UV-I 0,0 C 45 % 81 % 0 % 1002,7 hPa 0,0 l/m 0,0 km/h (0 Bft) 0 min 0,0 km/h (0 Bft)
06.06.2009 05:30 17,7 C 6,7 C 0,0 UV-I 0,0 C 46 % 81 % 0 % 1002,7 hPa 0,0 l/m 0,0 km/h (0 Bft) 0 min 0,0 km/h (0 Bft)
06.06.2009 05:32 17,7 C 6,6 C 0,0 UV-I 0,0 C 46 % 82 % 0 % 1002,7 hPa 0,0 l/m 0,0 km/h (0 Bft) 0 min 0,0 km/h (0 Bft)
06.06.2009 05:34 17,7 C 6,6 C 0,0 UV-I 0,0 C 46 % 82 % 0 % 1002,7 hPa 0,0 l/m 0,0 km/h (0 Bft) 0 min 0,0 km/h (0 Bft)
06.06.2009 05:36 17,6 C 6,7 C 0,0 UV-I 0,0 C 46 % 82 % 0 % 1002,7 hPa 0,0 l/m 0,0 km/h (0 Bft) 0 min 0,0 km/h (0 Bft)
06.06.2009 05:38 17,7 C 6,7 C 0,0 UV-I 0,0 C 46 % 82 % 0 % 1002,4 hPa 0,0 l/m 0,0 km/h (0 Bft) 0 min 0,0 km/h (0 Bft)
06.06.2009 05:40 17,7 C 6,7 C 0,0 UV-I 0,0 C 46 % 82 % 0 % 1002,4 hPa 0,0 l/m 0,0 km/h (0 Bft) 0 min 0,0 km/h (0 Bft)
06.06.2009 05:42 17,7 C 6,7 C 0,0 UV-I 0,0 C 46 % 82 % 0 % 1002,4 hPa 0,0 l/m 0,0 km/h (0 Bft) 0 min 0,0 km/h (0 Bft)
06.06.2009 05:44 17,6 C 6,7 C 0,0 UV-I 0,0 C 46 % 82 % 0 % 1002,4 hPa 0,0 l/m 0,0 km/h (0 Bft) 0 min 0,0 km/h (0 Bft)
06.06.2009 05:46 17,6 C 6,6 C 0,0 UV-I 0,0 C 46 % 82 % 0 % 1002,4 hPa 0,0 l/m 0,0 km/h (0 Bft) 0 min 0,0 km/h (0 Bft)
06.06.2009 05:48 17,6 C 6,6 C 0,0 UV-I 0,0 C 46 % 82 % 0 % 1002,4 hPa 0,0 l/m 0,0 km/h (0 Bft) 0 min 0,0 km/h (0 Bft)
06.06.2009 05:50 17,6 C 6,7 C 0,0 UV-I 0,0 C 46 % 82 % 0 % 1002,4 hPa 0,0 l/m 0,0 km/h (0 Bft) 0 min 0,0 km/h (0 Bft)
06.06.2009 05:52 17,6 C 6,7 C 0,1 UV-I 0,0 C 46 % 83 % 0 % 1002,4 hPa 0,0 l/m 0,0 km/h (0 Bft) 0 min 0,0 km/h (0 Bft)
06.06.2009 05:54 17,6 C 6,7 C 0,1 UV-I 0,0 C 46 % 83 % 0 % 1002,4 hPa 0,0 l/m 0,0 km/h (0 Bft) 0 min 0,0 km/h (0 Bft)
06.06.2009 05:56 17,6 C 6,7 C 0,1 UV-I 0,0 C 46 % 83 % 0 % 1002,4 hPa 0,0 l/m 0,0 km/h (0 Bft) 0 min 0,0 km/h (0 Bft)
06.06.2009 05:58 17,6 C 6,7 C 0,1 UV-I 0,0 C 46 % 83 % 0 % 1002,0 hPa 0,0 l/m 0,0 km/h (0 Bft) 0 min 0,0 km/h (0 Bft)
06.06.2009 06:00 17,6 C 6,7 C 0,1 UV-I 0,0 C 46 % 83 % 0 % 1002,0 hPa 0,0 l/m 0,0 km/h (0 Bft) 0 min 1,8 km/h (1 Bft)
06.06.2009 06:02 17,6 C 6,8 C 0,1 UV-I 0,0 C 46 % 83 % 0 % 1002,0 hPa 0,0 l/m 0,0 km/h (0 Bft) 0 min 0,0 km/h (0 Bft)
06.06.2009 06:04 17,6 C 6,8 C 0,1 UV-I 0,0 C 46 % 83 % 0 % 1002,0 hPa 0,0 l/m 0,0 km/h (0 Bft) 0 min 0,0 km/h (0 Bft)
06.06.2009 06:08 17,6 C 6,8 C 0,1 UV-I 0,0 C 46 % 83 % 0 % 1002,0 hPa 0,0 l/m 0,2 km/h (0 Bft) 0 min 0,0 km/h (0 Bft)
06.06.2009 06:10 17,6 C 6,8 C 0,1 UV-I 0,0 C 46 % 83 % 0 % 1002,0 hPa 0,0 l/m 0,2 km/h (0 Bft) 0 min 0,0 km/h (0 Bft)
06.06.2009 06:12 17,6 C 6,8 C 0,2 UV-I 0,0 C 46 % 83 % 0 % 1002,0 hPa 0,0 l/m 0,0 km/h (0 Bft) 0 min 2,3 km/h (1 Bft)
06.06.2009 06:14 17,6 C 6,9 C 0,2 UV-I 0,0 C 46 % 83 % 0 % 1002,0 hPa 0,0 l/m 0,2 km/h (0 Bft) 0 min 0,0 km/h (0 Bft)
06.06.2009 06:16 17,6 C 6,9 C 0,2 UV-I 0,0 C 46 % 82 % 0 % 1002,0 hPa 0,0 l/m 0,2 km/h (0 Bft) 0 min 0,0 km/h (0 Bft)
06.06.2009 06:18 17,6 C 7,0 C 0,2 UV-I 0,0 C 46 % 82 % 0 % 1001,8 hPa 0,0 l/m 0,0 km/h (0 Bft) 0 min 0,0 km/h (0 Bft)
06.06.2009 06:20 17,6 C 7,1 C 0,2 UV-I 0,0 C 46 % 83 % 0 % 1001,8 hPa 0,0 l/m 0,0 km/h (0 Bft) 0 min 0,0 km/h (0 Bft)
06.06.2009 06:22 17,6 C 6,9 C 0,2 UV-I 0,0 C 46 % 82 % 0 % 1001,8 hPa 0,0 l/m 0,0 km/h (0 Bft) 0 min 0,0 km/h (0 Bft)
06.06.2009 06:24 17,6 C 6,9 C 0,2 UV-I 0,0 C 46 % 82 % 0 % 1001,8 hPa 0,0 l/m 0,0 km/h (0 Bft) 0 min 0,0 km/h (0 Bft)
06.06.2009 06:26 17,6 C 6,9 C 0,3 UV-I 0,0 C 46 % 82 % 0 % 1001,8 hPa 0,0 l/m 0,2 km/h (0 Bft) 0 min 2,4 km/h (1 Bft)
06.06.2009 06:28 17,6 C 7,1 C 0,3 UV-I 0,0 C 46 % 83 % 0 % 1001,8 hPa 0,0 l/m 0,2 km/h (0 Bft) 0 min 0,0 km/h (0 Bft)
06.06.2009 06:30 17,6 C 7,1 C 0,3 UV-I 0,0 C 46 % 83 % 0 % 1001,8 hPa 0,0 l/m 0,5 km/h (0 Bft) 0 min 3,5 km/h (1 Bft)
06.06.2009 06:32 17,6 C 7,2 C 0,3 UV-I 0,0 C 46 % 83 % 0 % 1001,8 hPa 0,0 l/m 1,0 km/h (0 Bft) 0 min 0,0 km/h (0 Bft)
06.06.2009 06:34 17,6 C 7,2 C 0,3 UV-I 0,0 C 46 % 82 % 0 % 1001,8 hPa 0,0 l/m 1,0 km/h (0 Bft) 0 min 0,0 km/h (0 Bft)
06.06.2009 06:36 17,6 C 7,2 C 0,3 UV-I 0,0 C 46 % 82 % 0 % 1001,8 hPa 0,0 l/m 1,0 km/h (0 Bft) 0 min 0,0 km/h (0 Bft)
06.06.2009 06:38 17,6 C 7,3 C 0,3 UV-I 0,0 C 47 % 82 % 0 % 1001,7 hPa 0,0 l/m 0,7 km/h (0 Bft) 0 min 0,0 km/h (0 Bft)
06.06.2009 06:40 17,6 C 7,3 C 0,3 UV-I 0,0 C 47 % 82 % 0 % 1001,7 hPa 0,0 l/m 0,7 km/h (0 Bft) 0 min 0,0 km/h (0 Bft)
06.06.2009 06:42 17,6 C 7,4 C 0,4 UV-I 0,0 C 46 % 82 % 0 % 1001,7 hPa 0,0 l/m 0,2 km/h (0 Bft) 0 min 0,0 km/h (0 Bft)
06.06.2009 06:44 17,6 C 7,4 C 0,4 UV-I 0,0 C 47 % 82 % 0 % 1001,7 hPa 0,0 l/m 0,2 km/h (0 Bft) 0 min 0,0 km/h (0 Bft)
06.06.2009 06:46 17,6 C 7,5 C 0,4 UV-I 0,0 C 47 % 82 % 0 % 1001,7 hPa 0,0 l/m 0,2 km/h (0 Bft) 0 min 1,9 km/h (1 Bft)
06.06.2009 06:48 17,6 C 7,5 C 0,4 UV-I 0,0 C 47 % 81 % 0 % 1001,7 hPa 0,0 l/m 0,2 km/h (0 Bft) 0 min 0,0 km/h (0 Bft)
06.06.2009 06:50 17,6 C 7,5 C 0,4 UV-I 0,0 C 47 % 81 % 0 % 1001,7 hPa 0,0 l/m 0,2 km/h (0 Bft) 0 min 0,0 km/h (0 Bft)
06.06.2009 06:52 17,6 C 7,6 C 0,5 UV-I 0,0 C 47 % 81 % 0 % 1001,7 hPa 0,0 l/m 0,0 km/h (0 Bft) 0 min 0,0 km/h (0 Bft)
06.06.2009 06:54 17,6 C 7,6 C 0,5 UV-I 0,0 C 46 % 81 % 0 % 1001,7 hPa 0,0 l/m 0,2 km/h (0 Bft) 0 min 2,1 km/h (1 Bft)
06.06.2009 06:56 17,6 C 7,6 C 0,5 UV-I 0,1 C 47 % 81 % 3 % 1001,7 hPa 0,0 l/m 0,2 km/h (0 Bft) 0 min 0,0 km/h (0 Bft)
06.06.2009 06:58 17,6 C 7,6 C 0,5 UV-I 0,2 C 47 % 81 % 6 % 1001,4 hPa 0,0 l/m 0,2 km/h (0 Bft) 0 min 0,0 km/h (0 Bft)
06.06.2009 07:00 17,6 C 7,7 C 0,5 UV-I 0,1 C 47 % 81 % 3 % 1001,4 hPa 0,0 l/m 0,2 km/h (0 Bft) 0 min 0,0 km/h (0 Bft)
06.06.2009 07:02 17,6 C 7,8 C 0,4 UV-I 0,1 C 47 % 81 % 3 % 1001,4 hPa 0,0 l/m 0,2 km/h (0 Bft) 0 min 0,0 km/h (0 Bft)
06.06.2009 07:04 17,6 C 7,9 C 0,4 UV-I 0,1 C 47 % 80 % 3 % 1001,4 hPa 0,0 l/m 0,2 km/h (0 Bft) 0 min 0,0 km/h (0 Bft)
06.06.2009 07:08 17,6 C 7,9 C 0,4 UV-I 0,3 C 47 % 80 % 9 % 1001,4 hPa 0,0 l/m 0,2 km/h (0 Bft) 0 min 0,0 km/h (0 Bft)
06.06.2009 07:10 17,6 C 7,9 C 0,4 UV-I 0,3 C 47 % 80 % 9 % 1001,4 hPa 0,0 l/m 0,0 km/h (0 Bft) 0 min 0,0 km/h (0 Bft)
06.06.2009 07:12 17,6 C 7,9 C 0,6 UV-I 0,4 C 46 % 80 % 11 % 1001,4 hPa 0,0 l/m 0,0 km/h (0 Bft) 0 min 0,0 km/h (0 Bft)
06.06.2009 07:14 17,6 C 8,0 C 0,6 UV-I 0,5 C 46 % 80 % 14 % 1001,4 hPa 0,0 l/m 0,0 km/h (0 Bft) 0 min 0,0 km/h (0 Bft)
06.06.2009 07:16 17,6 C 8,1 C 0,7 UV-I 0,4 C 46 % 80 % 11 % 1001,4 hPa 0,0 l/m 0,0 km/h (0 Bft) 0 min 0,0 km/h (0 Bft)
06.06.2009 07:18 17,6 C 8,1 C 0,7 UV-I 0,6 C 46 % 79 % 17 % 1001,1 hPa 0,0 l/m 0,0 km/h (0 Bft) 0 min 0,0 km/h (0 Bft)
06.06.2009 07:20 17,6 C 8,2 C 0,7 UV-I 0,6 C 46 % 79 % 17 % 1001,1 hPa 0,0 l/m 0,0 km/h (0 Bft) 0 min 0,0 km/h (0 Bft)
06.06.2009 07:22 17,6 C 8,3 C 0,6 UV-I 0,5 C 46 % 79 % 14 % 1001,1 hPa 0,0 l/m 0,0 km/h (0 Bft) 0 min 0,0 km/h (0 Bft)
06.06.2009 07:24 17,6 C 8,2 C 0,6 UV-I 0,7 C 46 % 79 % 20 % 1001,1 hPa 0,0 l/m 0,0 km/h (0 Bft) 0 min 0,0 km/h (0 Bft)
06.06.2009 07:26 17,6 C 8,3 C 0,7 UV-I 0,8 C 46 % 78 % 23 % 1001,1 hPa 0,0 l/m 0,0 km/h (0 Bft) 0 min 0,0 km/h (0 Bft)
06.06.2009 07:28 17,6 C 8,3 C 0,7 UV-I 0,8 C 46 % 78 % 23 % 1001,1 hPa 0,0 l/m 0,0 km/h (0 Bft) 0 min 0,0 km/h (0 Bft)
06.06.2009 07:30 17,6 C 8,4 C 0,7 UV-I 0,7 C 46 % 78 % 20 % 1001,1 hPa 0,0 l/m 0,0 km/h (0 Bft) 0 min 0,0 km/h (0 Bft)
06.06.2009 07:32 17,6 C 8,5 C 0,7 UV-I 0,7 C 46 % 77 % 20 % 1001,1 hPa 0,0 l/m 0,0 km/h (0 Bft) 0 min 0,0 km/h (0 Bft)
06.06.2009 07:34 17,6 C 8,5 C 0,7 UV-I 0,8 C 46 % 77 % 23 % 1001,1 hPa 0,0 l/m 0,0 km/h (0 Bft) 0 min 0,0 km/h (0 Bft)
06.06.2009 07:36 17,6 C 8,5 C 0,7 UV-I 0,8 C 46 % 77 % 23 % 1001,1 hPa 0,0 l/m 0,0 km/h (0 Bft) 0 min 0,0 km/h (0 Bft)
06.06.2009 07:38 17,6 C 8,7 C 0,7 UV-I 0,6 C 46 % 77 % 17 % 1001,1 hPa 0,0 l/m 0,0 km/h (0 Bft) 0 min 0,0 km/h (0 Bft)
06.06.2009 07:40 17,6 C 8,7 C 0,7 UV-I 0,7 C 46 % 77 % 20 % 1001,1 hPa 0,0 l/m 0,0 km/h (0 Bft) 0 min 0,0 km/h (0 Bft)
06.06.2009 07:42 17,6 C 8,7 C 0,7 UV-I 0,7 C 46 % 77 % 20 % 1001,1 hPa 0,0 l/m 0,0 km/h (0 Bft) 0 min 3,2 km/h (1 Bft)
06.06.2009 07:44 17,6 C 8,8 C 0,7 UV-I 0,7 C 46 % 76 % 20 % 1001,1 hPa 0,0 l/m 0,0 km/h (0 Bft) 0 min 0,0 km/h (0 Bft)
06.06.2009 07:46 17,6 C 8,9 C 0,7 UV-I 0,6 C 46 % 76 % 17 % 1001,1 hPa 0,0 l/m 0,0 km/h (0 Bft) 0 min 0,0 km/h (0 Bft)
06.06.2009 07:48 17,6 C 8,8 C 0,7 UV-I 0,8 C 46 % 76 % 23 % 1001,1 hPa 0,0 l/m 0,0 km/h (0 Bft) 0 min 0,0 km/h (0 Bft)
06.06.2009 07:50 17,6 C 8,8 C 0,7 UV-I 0,8 C 46 % 75 % 23 % 1001,1 hPa 0,0 l/m 0,2 km/h (0 Bft) 0 min 1,9 km/h (1 Bft)
06.06.2009 07:52 17,7 C 8,8 C 0,8 UV-I 0,9 C 46 % 75 % 26 % 1001,1 hPa 0,0 l/m 0,2 km/h (0 Bft) 0 min 0,0 km/h (0 Bft)
06.06.2009 07:54 17,7 C 9,0 C 0,8 UV-I 0,8 C 46 % 75 % 23 % 1001,1 hPa 0,0 l/m 0,0 km/h (0 Bft) 0 min 0,0 km/h (0 Bft)
06.06.2009 07:56 17,7 C 9,1 C 1,0 UV-I 0,8 C 46 % 75 % 23 % 1001,1 hPa 0,0 l/m 0,0 km/h (0 Bft) 0 min 0,0 km/h (0 Bft)
06.06.2009 07:58 17,7 C 9,1 C 1,0 UV-I 0,9 C 46 % 75 % 26 % 1001,2 hPa 0,0 l/m 0,0 km/h (0 Bft) 0 min 0,0 km/h (0 Bft)
06.06.2009 08:00 17,7 C 9,1 C 1,0 UV-I 1,0 C 46 % 75 % 29 % 1001,2 hPa 0,0 l/m 0,0 km/h (0 Bft) 0 min 0,0 km/h (0 Bft)
06.06.2009 08:02 17,7 C 9,1 C 1,2 UV-I 1,1 C 46 % 74 % 31 % 1001,2 hPa 0,0 l/m 0,0 km/h (0 Bft) 0 min 0,0 km/h (0 Bft)
06.06.2009 08:04 17,7 C 9,2 C 1,2 UV-I 1,1 C 46 % 73 % 31 % 1001,2 hPa 0,0 l/m 0,0 km/h (0 Bft) 0 min 0,0 km/h (0 Bft)
06.06.2009 08:10 17,7 C 9,5 C 1,4 UV-I 1,2 C 46 % 73 % 34 % 1001,2 hPa 0,0 l/m 0,0 km/h (0 Bft) 0 min 0,0 km/h (0 Bft)
06.06.2009 08:12 17,7 C 9,5 C 1,5 UV-I 1,4 C 45 % 73 % 40 % 1001,2 hPa 0,0 l/m 0,0 km/h (0 Bft) 0 min 0,0 km/h (0 Bft)
06.06.2009 08:14 17,8 C 9,6 C 1,5 UV-I 1,4 C 45 % 73 % 40 % 1001,2 hPa 0,0 l/m 0,0 km/h (0 Bft) 0 min 0,0 km/h (0 Bft)
06.06.2009 08:16 17,8 C 9,7 C 1,4 UV-I 1,4 C 45 % 73 % 40 % 1001,2 hPa 0,0 l/m 0,0 km/h (0 Bft) 0 min 0,0 km/h (0 Bft)
06.06.2009 08:18 17,7 C 9,7 C 1,4 UV-I 1,6 C 45 % 73 % 46 % 1000,6 hPa 0,0 l/m 0,2 km/h (0 Bft) 0 min 0,0 km/h (0 Bft)
06.06.2009 08:20 17,8 C 9,8 C 1,4 UV-I 1,5 C 45 % 73 % 43 % 1000,6 hPa 0,0 l/m 0,2 km/h (0 Bft) 0 min 2,3 km/h (1 Bft)
06.06.2009 08:22 17,8 C 9,8 C 1,5 UV-I 1,7 C 45 % 72 % 49 % 1000,6 hPa 0,0 l/m 0,2 km/h (0 Bft) 0 min 0,0 km/h (0 Bft)
06.06.2009 08:24 17,8 C 9,9 C 1,5 UV-I 1,6 C 45 % 72 % 46 % 1000,6 hPa 0,0 l/m 0,2 km/h (0 Bft) 0 min 0,0 km/h (0 Bft)
06.06.2009 08:26 17,8 C 10,1 C 1,5 UV-I 1,6 C 45 % 71 % 46 % 1000,6 hPa 0,0 l/m 0,2 km/h (0 Bft) 0 min 0,0 km/h (0 Bft)
06.06.2009 08:28 17,8 C 10,0 C 1,5 UV-I 1,8 C 45 % 71 % 51 % 1000,6 hPa 0,0 l/m 0,2 km/h (0 Bft) 0 min 0,0 km/h (0 Bft)
06.06.2009 08:30 17,8 C 10,2 C 1,5 UV-I 1,6 C 45 % 71 % 46 % 1000,6 hPa 0,0 l/m 0,2 km/h (0 Bft) 0 min 0,0 km/h (0 Bft)
06.06.2009 08:32 17,8 C 10,3 C 1,5 UV-I 1,6 C 45 % 71 % 46 % 1000,6 hPa 0,0 l/m 0,2 km/h (0 Bft) 0 min 0,0 km/h (0 Bft)
06.06.2009 08:34 17,8 C 10,3 C 1,5 UV-I 1,7 C 45 % 70 % 49 % 1000,6 hPa 0,0 l/m 0,0 km/h (0 Bft) 0 min 0,0 km/h (0 Bft)
06.06.2009 08:36 17,8 C 10,3 C 1,6 UV-I 1,7 C 45 % 70 % 49 % 1000,6 hPa 0,0 l/m 0,0 km/h (0 Bft) 0 min 0,0 km/h (0 Bft)
06.06.2009 08:38 17,8 C 10,4 C 1,6 UV-I 1,7 C 45 % 70 % 49 % 1000,8 hPa 0,0 l/m 0,0 km/h (0 Bft) 0 min 1,9 km/h (1 Bft)
06.06.2009 08:40 17,8 C 10,4 C 1,6 UV-I 1,7 C 45 % 70 % 49 % 1000,8 hPa 0,0 l/m 0,0 km/h (0 Bft) 0 min 0,0 km/h (0 Bft)
06.06.2009 08:42 17,9 C 10,5 C 1,7 UV-I 1,7 C 45 % 70 % 49 % 1000,8 hPa 0,0 l/m 0,0 km/h (0 Bft) 0 min 0,0 km/h (0 Bft)
06.06.2009 08:54 17,9 C 10,8 C 1,7 UV-I 1,7 C 45 % 69 % 49 % 1000,8 hPa 0,0 l/m 0,0 km/h (0 Bft) 0 min 0,0 km/h (0 Bft)
06.06.2009 08:56 18,0 C 10,9 C 1,7 UV-I 1,6 C 45 % 68 % 46 % 1000,8 hPa 0,0 l/m 0,2 km/h (0 Bft) 0 min 3,2 km/h (1 Bft)
06.06.2009 08:58 18,0 C 10,9 C 1,7 UV-I 1,6 C 45 % 68 % 46 % 1000,4 hPa 0,0 l/m 0,2 km/h (0 Bft) 0 min 0,0 km/h (0 Bft)
06.06.2009 09:00 18,0 C 10,9 C 1,7 UV-I 1,7 C 45 % 68 % 49 % 1000,4 hPa 0,0 l/m 0,2 km/h (0 Bft) 0 min 0,0 km/h (0 Bft)
06.06.2009 09:02 18,0 C 11,1 C 2,0 UV-I 1,5 C 45 % 68 % 43 % 1000,4 hPa 0,0 l/m 0,2 km/h (0 Bft) 0 min 0,0 km/h (0 Bft)
06.06.2009 09:04 18,0 C 11,1 C 2,0 UV-I 1,5 C 45 % 67 % 43 % 1000,4 hPa 0,0 l/m 0,2 km/h (0 Bft) 0 min 0,0 km/h (0 Bft)
06.06.2009 09:08 18,0 C 11,1 C 2,1 UV-I 1,7 C 45 % 67 % 49 % 1000,4 hPa 0,0 l/m 0,2 km/h (0 Bft) 0 min 3,2 km/h (1 Bft)
06.06.2009 09:10 18,0 C 11,3 C 2,1 UV-I 1,5 C 45 % 67 % 43 % 1000,4 hPa 0,0 l/m 0,5 km/h (0 Bft) 0 min 0,0 km/h (0 Bft)
06.06.2009 09:12 18,0 C 11,2 C 2,1 UV-I 1,6 C 45 % 67 % 46 % 1000,4 hPa 0,0 l/m 0,5 km/h (0 Bft) 0 min 0,0 km/h (0 Bft)
06.06.2009 09:14 18,0 C 11,3 C 2,1 UV-I 1,6 C 45 % 67 % 46 % 1000,4 hPa 0,0 l/m 0,2 km/h (0 Bft) 0 min 0,0 km/h (0 Bft)
06.06.2009 09:16 18,0 C 11,3 C 2,2 UV-I 1,7 C 45 % 67 % 49 % 1000,4 hPa 0,0 l/m 0,2 km/h (0 Bft) 0 min 1,8 km/h (1 Bft)
06.06.2009 09:18 18,1 C 11,5 C 2,2 UV-I 1,6 C 45 % 67 % 46 % 1000,4 hPa 0,0 l/m 0,2 km/h (0 Bft) 0 min 0,0 km/h (0 Bft)
06.06.2009 09:20 18,1 C 11,5 C 2,2 UV-I 1,7 C 45 % 67 % 49 % 1000,4 hPa 0,0 l/m 0,2 km/h (0 Bft) 0 min 0,0 km/h (0 Bft)
06.06.2009 09:22 18,1 C 11,5 C 2,3 UV-I 1,8 C 45 % 67 % 51 % 1000,4 hPa 0,0 l/m 0,0 km/h (0 Bft) 0 min 0,0 km/h (0 Bft)
06.06.2009 09:24 18,1 C 11,7 C 2,3 UV-I 1,8 C 45 % 67 % 51 % 1000,4 hPa 0,0 l/m 0,2 km/h (0 Bft) 0 min 3,1 km/h (1 Bft)
06.06.2009 09:26 18,1 C 11,6 C 2,2 UV-I 1,9 C 45 % 67 % 54 % 1000,4 hPa 0,0 l/m 0,2 km/h (0 Bft) 0 min 0,0 km/h (0 Bft)
06.06.2009 09:28 18,1 C 11,7 C 2,2 UV-I 1,9 C 45 % 67 % 54 % 1000,4 hPa 0,0 l/m 0,0 km/h (0 Bft) 0 min 1,6 km/h (1 Bft)
06.06.2009 09:30 18,1 C 11,8 C 2,2 UV-I 1,9 C 45 % 66 % 54 % 1000,4 hPa 0,0 l/m 0,0 km/h (0 Bft) 0 min 0,0 km/h (0 Bft)
06.06.2009 09:32 18,1 C 11,7 C 2,3 UV-I 2,0 C 44 % 65 % 57 % 1000,4 hPa 0,0 l/m 0,2 km/h (0 Bft) 0 min 0,0 km/h (0 Bft)
06.06.2009 09:34 18,2 C 11,8 C 2,3 UV-I 1,9 C 44 % 65 % 54 % 1000,4 hPa 0,0 l/m 0,2 km/h (0 Bft) 0 min 0,0 km/h (0 Bft)
06.06.2009 09:36 18,2 C 11,9 C 2,3 UV-I 1,8 C 44 % 66 % 51 % 1000,4 hPa 0,0 l/m 0,2 km/h (0 Bft) 0 min 0,0 km/h (0 Bft)
06.06.2009 09:38 18,2 C 11,9 C 2,3 UV-I 2,0 C 44 % 65 % 57 % 1000,0 hPa 0,0 l/m 0,2 km/h (0 Bft) 0 min 0,0 km/h (0 Bft)
06.06.2009 09:40 18,2 C 12,0 C 2,3 UV-I 1,8 C 44 % 65 % 51 % 1000,0 hPa 0,0 l/m 0,2 km/h (0 Bft) 0 min 0,0 km/h (0 Bft)
06.06.2009 09:42 18,2 C 12,0 C 2,4 UV-I 1,9 C 44 % 65 % 54 % 1000,0 hPa 0,0 l/m 0,0 km/h (0 Bft) 0 min 0,0 km/h (0 Bft)
06.06.2009 09:44 18,2 C 12,1 C 2,4 UV-I 1,9 C 45 % 65 % 54 % 1000,0 hPa 0,0 l/m 0,0 km/h (0 Bft) 0 min 1,6 km/h (1 Bft)
06.06.2009 09:46 18,2 C 12,1 C 2,5 UV-I 2,0 C 44 % 65 % 57 % 1000,0 hPa 0,0 l/m 0,0 km/h (0 Bft) 0 min 0,0 km/h (0 Bft)
06.06.2009 09:48 18,2 C 12,3 C 2,5 UV-I 1,8 C 44 % 65 % 51 % 1000,0 hPa 0,0 l/m 0,0 km/h (0 Bft) 0 min 0,0 km/h (0 Bft)
06.06.2009 09:50 18,2 C 12,2 C 2,5 UV-I 2,0 C 44 % 65 % 57 % 1000,0 hPa 0,0 l/m 0,0 km/h (0 Bft) 0 min 1,8 km/h (1 Bft)
06.06.2009 09:52 18,2 C 12,3 C 2,5 UV-I 2,0 C 45 % 65 % 57 % 1000,0 hPa 0,0 l/m 0,0 km/h (0 Bft) 0 min 0,0 km/h (0 Bft)
06.06.2009 09:54 18,2 C 12,4 C 2,5 UV-I 1,9 C 45 % 65 % 54 % 1000,0 hPa 0,0 l/m 0,0 km/h (0 Bft) 0 min 0,0 km/h (0 Bft)
06.06.2009 09:56 18,2 C 12,4 C 2,6 UV-I 1,9 C 45 % 64 % 54 % 1000,0 hPa 0,0 l/m 0,2 km/h (0 Bft) 0 min 0,0 km/h (0 Bft)
06.06.2009 09:58 18,2 C 12,4 C 2,6 UV-I 1,9 C 44 % 64 % 54 % 1000,1 hPa 0,0 l/m 0,2 km/h (0 Bft) 0 min 0,0 km/h (0 Bft)
06.06.2009 10:00 18,2 C 12,5 C 2,6 UV-I 1,9 C 44 % 64 % 54 % 1000,1 hPa 0,0 l/m 0,2 km/h (0 Bft) 0 min 0,0 km/h (0 Bft)
06.06.2009 10:02 18,3 C 12,5 C 2,7 UV-I 2,0 C 44 % 64 % 57 % 1000,1 hPa 0,0 l/m 0,2 km/h (0 Bft) 0 min 4,8 km/h (1 Bft)
06.06.2009 10:04 18,3 C 12,5 C 2,7 UV-I 2,1 C 44 % 65 % 60 % 1000,1 hPa 0,0 l/m 0,2 km/h (0 Bft) 0 min 0,0 km/h (0 Bft)
06.06.2009 10:08 18,3 C 12,7 C 2,6 UV-I 2,0 C 44 % 64 % 57 % 1000,1 hPa 0,0 l/m 0,5 km/h (0 Bft) 0 min 3,4 km/h (1 Bft)
06.06.2009 10:10 18,3 C 12,7 C 2,6 UV-I 2,0 C 44 % 64 % 57 % 1000,1 hPa 0,0 l/m 0,5 km/h (0 Bft) 0 min 1,8 km/h (1 Bft)
06.06.2009 10:12 18,3 C 12,9 C 2,4 UV-I 1,8 C 44 % 64 % 51 % 1000,1 hPa 0,0 l/m 0,7 km/h (0 Bft) 0 min 2,1 km/h (1 Bft)
06.06.2009 10:14 18,2 C 12,9 C 2,4 UV-I 1,8 C 44 % 63 % 51 % 1000,1 hPa 0,0 l/m 0,7 km/h (0 Bft) 0 min 0,0 km/h (0 Bft)
06.06.2009 10:16 18,2 C 12,8 C 2,5 UV-I 1,9 C 44 % 62 % 54 % 1000,1 hPa 0,0 l/m 1,0 km/h (0 Bft) 0 min 2,3 km/h (1 Bft)
06.06.2009 10:18 18,2 C 12,9 C 2,5 UV-I 1,8 C 44 % 62 % 51 % 1000,1 hPa 0,0 l/m 0,7 km/h (0 Bft) 0 min 0,0 km/h (0 Bft)
06.06.2009 10:20 18,4 C 12,9 C 2,5 UV-I 1,8 C 44 % 62 % 51 % 1000,1 hPa 0,0 l/m 0,5 km/h (0 Bft) 0 min 1,9 km/h (1 Bft)
06.06.2009 10:22 18,4 C 12,9 C 2,6 UV-I 1,8 C 44 % 62 % 51 % 1000,1 hPa 0,0 l/m 0,5 km/h (0 Bft) 0 min 2,4 km/h (1 Bft)
06.06.2009 10:24 18,4 C 13,0 C 2,6 UV-I 1,7 C 44 % 62 % 49 % 1000,1 hPa 0,0 l/m 0,5 km/h (0 Bft) 0 min 0,0 km/h (0 Bft)
06.06.2009 10:26 18,4 C 13,0 C 2,4 UV-I 1,7 C 44 % 62 % 49 % 1000,1 hPa 0,0 l/m 0,5 km/h (0 Bft) 0 min 3,1 km/h (1 Bft)
06.06.2009 10:28 18,4 C 13,1 C 2,4 UV-I 1,5 C 44 % 62 % 43 % 1000,1 hPa 0,0 l/m 0,5 km/h (0 Bft) 0 min 0,0 km/h (0 Bft)
06.06.2009 10:30 18,4 C 13,1 C 2,4 UV-I 1,5 C 44 % 62 % 43 % 1000,1 hPa 0,0 l/m 0,5 km/h (0 Bft) 0 min 0,0 km/h (0 Bft)
06.06.2009 10:32 18,4 C 13,1 C 2,4 UV-I 1,5 C 44 % 62 % 43 % 1000,1 hPa 0,0 l/m 0,7 km/h (0 Bft) 0 min 2,3 km/h (1 Bft)
06.06.2009 10:34 18,4 C 13,2 C 2,4 UV-I 1,4 C 44 % 62 % 40 % 1000,1 hPa 0,0 l/m 0,7 km/h (0 Bft) 0 min 1,6 km/h (1 Bft)
06.06.2009 10:36 18,4 C 13,2 C 2,5 UV-I 1,4 C 44 % 62 % 40 % 1000,1 hPa 0,0 l/m 0,5 km/h (0 Bft) 0 min 0,0 km/h (0 Bft)
06.06.2009 10:38 18,4 C 13,2 C 2,5 UV-I 1,4 C 44 % 62 % 40 % 999,9 hPa 0,0 l/m 0,5 km/h (0 Bft) 0 min 3,2 km/h (1 Bft)
06.06.2009 10:40 18,4 C 13,2 C 2,5 UV-I 1,4 C 44 % 62 % 40 % 999,9 hPa 0,0 l/m 0,5 km/h (0 Bft) 0 min 0,0 km/h (0 Bft)
06.06.2009 10:42 18,4 C 13,2 C 2,8 UV-I 1,5 C 44 % 62 % 43 % 999,9 hPa 0,0 l/m 0,5 km/h (0 Bft) 0 min 0,0 km/h (0 Bft)
06.06.2009 10:44 18,4 C 13,3 C 2,8 UV-I 1,5 C 44 % 62 % 43 % 999,9 hPa 0,0 l/m 0,2 km/h (0 Bft) 0 min 0,0 km/h (0 Bft)
06.06.2009 10:46 18,4 C 13,3 C 3,1 UV-I 1,6 C 44 % 62 % 46 % 999,9 hPa 0,0 l/m 0,2 km/h (0 Bft) 0 min 0,0 km/h (0 Bft)
06.06.2009 10:48 18,4 C 13,5 C 3,1 UV-I 1,5 C 44 % 62 % 43 % 999,9 hPa 0,0 l/m 0,5 km/h (0 Bft) 0 min 3,7 km/h (1 Bft)
06.06.2009 10:50 18,4 C 13,4 C 3,1 UV-I 1,6 C 44 % 61 % 46 % 999,9 hPa 0,0 l/m 0,5 km/h (0 Bft) 0 min 2,1 km/h (1 Bft)
06.06.2009 10:52 18,5 C 13,5 C 2,6 UV-I 1,5 C 44 % 61 % 43 % 999,9 hPa 0,0 l/m 0,5 km/h (0 Bft) 0 min 0,0 km/h (0 Bft)
06.06.2009 10:54 18,5 C 13,5 C 2,6 UV-I 1,5 C 44 % 61 % 43 % 999,9 hPa 0,0 l/m 0,5 km/h (0 Bft) 0 min 0,0 km/h (0 Bft)
06.06.2009 10:56 18,5 C 13,5 C 2,6 UV-I 1,4 C 44 % 61 % 40 % 999,9 hPa 0,0 l/m 0,7 km/h (0 Bft) 0 min 2,3 km/h (1 Bft)
06.06.2009 10:58 18,5 C 13,6 C 2,6 UV-I 1,3 C 44 % 61 % 37 % 1000,0 hPa 0,0 l/m 0,7 km/h (0 Bft) 0 min 0,0 km/h (0 Bft)
06.06.2009 11:00 18,5 C 13,5 C 2,6 UV-I 1,3 C 44 % 60 % 37 % 1000,0 hPa 0,0 l/m 0,5 km/h (0 Bft) 0 min 0,0 km/h (0 Bft)
06.06.2009 11:02 18,5 C 13,5 C 2,0 UV-I 1,2 C 44 % 60 % 34 % 1000,0 hPa 0,0 l/m 0,2 km/h (0 Bft) 0 min 5,0 km/h (1 Bft)
06.06.2009 11:04 18,5 C 13,6 C 2,0 UV-I 1,1 C 44 % 60 % 31 % 1000,0 hPa 0,0 l/m 0,5 km/h (0 Bft) 0 min 0,0 km/h (0 Bft)
06.06.2009 11:08 18,5 C 13,5 C 1,7 UV-I 1,0 C 44 % 60 % 29 % 1000,0 hPa 0,0 l/m 0,2 km/h (0 Bft) 0 min 0,0 km/h (0 Bft)
06.06.2009 11:10 18,5 C 13,6 C 1,7 UV-I 0,9 C 44 % 61 % 26 % 1000,0 hPa 0,0 l/m 0,2 km/h (0 Bft) 0 min 0,0 km/h (0 Bft)
06.06.2009 11:12 18,5 C 13,6 C 1,9 UV-I 0,9 C 44 % 60 % 26 % 1000,0 hPa 0,0 l/m 0,2 km/h (0 Bft) 0 min 5,0 km/h (1 Bft)
06.06.2009 11:14 18,5 C 13,6 C 1,9 UV-I 0,9 C 44 % 60 % 26 % 1000,0 hPa 0,0 l/m 0,0 km/h (0 Bft) 0 min 1,9 km/h (1 Bft)
06.06.2009 11:16 18,5 C 13,6 C 2,5 UV-I 0,9 C 44 % 60 % 26 % 1000,0 hPa 0,0 l/m 0,0 km/h (0 Bft) 0 min 0,0 km/h (0 Bft)
06.06.2009 11:18 18,5 C 13,6 C 2,5 UV-I 1,1 C 44 % 60 % 31 % 999,8 hPa 0,0 l/m 0,0 km/h (0 Bft) 0 min 0,0 km/h (0 Bft)
06.06.2009 11:20 18,5 C 13,7 C 2,5 UV-I 1,0 C 44 % 60 % 29 % 999,8 hPa 0,0 l/m 0,0 km/h (0 Bft) 0 min 0,0 km/h (0 Bft)
06.06.2009 11:22 18,6 C 13,6 C 2,6 UV-I 1,3 C 44 % 60 % 37 % 999,8 hPa 0,0 l/m 0,0 km/h (0 Bft) 0 min 0,0 km/h (0 Bft)
06.06.2009 11:24 18,6 C 13,7 C 2,6 UV-I 1,2 C 44 % 60 % 34 % 999,8 hPa 0,0 l/m 0,2 km/h (0 Bft) 0 min 1,9 km/h (1 Bft)
06.06.2009 11:26 18,6 C 13,7 C 2,3 UV-I 1,2 C 44 % 59 % 34 % 999,8 hPa 0,0 l/m 0,2 km/h (0 Bft) 0 min 3,2 km/h (1 Bft)
06.06.2009 11:28 18,6 C 13,7 C 2,3 UV-I 1,2 C 44 % 59 % 34 % 999,8 hPa 0,0 l/m 0,2 km/h (0 Bft) 0 min 1,8 km/h (1 Bft)
06.06.2009 11:30 18,6 C 13,7 C 2,3 UV-I 1,2 C 44 % 59 % 34 % 999,8 hPa 0,0 l/m 0,2 km/h (0 Bft) 0 min 0,0 km/h (0 Bft)
06.06.2009 11:32 18,6 C 13,7 C 2,7 UV-I 1,3 C 44 % 59 % 37 % 999,8 hPa 0,0 l/m 0,2 km/h (0 Bft) 0 min 0,0 km/h (0 Bft)
06.06.2009 11:34 18,6 C 13,8 C 2,7 UV-I 1,4 C 44 % 59 % 40 % 999,8 hPa 0,0 l/m 0,5 km/h (0 Bft) 0 min 0,0 km/h (0 Bft)
06.06.2009 11:36 18,6 C 13,9 C 3,7 UV-I 1,5 C 44 % 59 % 43 % 999,8 hPa 0,0 l/m 0,2 km/h (0 Bft) 0 min 0,0 km/h (0 Bft)
06.06.2009 11:38 18,6 C 13,9 C 3,7 UV-I 1,8 C 44 % 59 % 51 % 999,8 hPa 0,0 l/m 0,2 km/h (0 Bft) 0 min 0,0 km/h (0 Bft)
06.06.2009 11:40 18,6 C 14,0 C 3,7 UV-I 2,1 C 44 % 59 % 60 % 999,8 hPa 0,0 l/m 0,2 km/h (0 Bft) 0 min 0,0 km/h (0 Bft)
06.06.2009 11:42 18,6 C 14,1 C 5,2 UV-I 2,4 C 44 % 59 % 69 % 999,8 hPa 0,0 l/m 0,2 km/h (0 Bft) 0 min 0,0 km/h (0 Bft)
06.06.2009 11:44 18,6 C 14,2 C 5,2 UV-I 3,0 C 44 % 59 % 86 % 999,8 hPa 0,0 l/m 0,2 km/h (0 Bft) 2 min 0,0 km/h (0 Bft)
06.06.2009 11:46 18,6 C 14,4 C 7,3 UV-I 3,4 C 44 % 59 % 97 % 999,8 hPa 0,0 l/m 0,2 km/h (0 Bft) 2 min 0,0 km/h (0 Bft)
06.06.2009 11:48 18,6 C 14,6 C 7,3 UV-I 4,4 C 44 % 59 % 100 % 999,8 hPa 0,0 l/m 0,2 km/h (0 Bft) 2 min 0,0 km/h (0 Bft)
06.06.2009 11:50 18,6 C 14,9 C 7,3 UV-I 5,2 C 44 % 60 % 100 % 999,8 hPa 0,0 l/m 0,5 km/h (0 Bft) 2 min 1,9 km/h (1 Bft)
06.06.2009 11:52 18,7 C 15,1 C 8,5 UV-I 5,6 C 44 % 58 % 100 % 999,8 hPa 0,0 l/m 1,2 km/h (1 Bft) 2 min 4,5 km/h (1 Bft)
06.06.2009 11:54 18,7 C 15,2 C 8,5 UV-I 5,7 C 44 % 57 % 100 % 999,8 hPa 0,0 l/m 1,4 km/h (1 Bft) 2 min 0,0 km/h (0 Bft)
06.06.2009 11:56 18,7 C 15,3 C 6,4 UV-I 5,5 C 44 % 56 % 100 % 999,8 hPa 0,0 l/m 1,4 km/h (1 Bft) 2 min 0,0 km/h (0 Bft)
06.06.2009 11:58 18,7 C 15,3 C 6,4 UV-I 5,4 C 44 % 56 % 100 % 999,6 hPa 0,0 l/m 1,4 km/h (1 Bft) 2 min 3,2 km/h (1 Bft)
06.06.2009 12:00 18,7 C 15,4 C 6,4 UV-I 4,9 C 44 % 55 % 100 % 999,6 hPa 0,0 l/m 1,7 km/h (1 Bft) 2 min 0,0 km/h (0 Bft)
06.06.2009 12:02 18,7 C 15,5 C 5,1 UV-I 4,5 C 44 % 56 % 100 % 999,6 hPa 0,0 l/m 1,4 km/h (1 Bft) 2 min 6,1 km/h (2 Bft)
06.06.2009 12:04 18,7 C 15,5 C 5,1 UV-I 4,5 C 44 % 56 % 100 % 999,6 hPa 0,0 l/m 1,4 km/h (1 Bft) 2 min 0,0 km/h (0 Bft)
06.06.2009 12:08 18,8 C 15,5 C 4,6 UV-I 3,8 C 44 % 55 % 100 % 999,6 hPa 0,0 l/m 1,0 km/h (0 Bft) 2 min 2,1 km/h (1 Bft)
06.06.2009 12:10 18,8 C 15,6 C 4,6 UV-I 3,5 C 44 % 55 % 100 % 999,6 hPa 0,0 l/m 0,5 km/h (0 Bft) 2 min 0,0 km/h (0 Bft)
06.06.2009 12:12 18,8 C 15,6 C 4,5 UV-I 3,4 C 44 % 55 % 97 % 999,6 hPa 0,0 l/m 0,7 km/h (0 Bft) 2 min 3,7 km/h (1 Bft)
06.06.2009 12:14 18,8 C 15,6 C 4,5 UV-I 3,3 C 44 % 55 % 94 % 999,6 hPa 0,0 l/m 0,7 km/h (0 Bft) 2 min 0,0 km/h (0 Bft)
06.06.2009 12:16 18,8 C 15,6 C 3,9 UV-I 3,0 C 44 % 54 % 86 % 999,6 hPa 0,0 l/m 1,2 km/h (1 Bft) 2 min 0,0 km/h (0 Bft)
06.06.2009 12:18 18,8 C 15,6 C 3,9 UV-I 2,8 C 44 % 53 % 80 % 999,3 hPa 0,0 l/m 1,7 km/h (1 Bft) 0 min 3,4 km/h (1 Bft)
06.06.2009 12:20 18,8 C 15,6 C 3,9 UV-I 2,4 C 44 % 54 % 69 % 999,3 hPa 0,0 l/m 1,7 km/h (1 Bft) 0 min 0,0 km/h (0 Bft)
06.06.2009 12:22 18,8 C 15,6 C 3,4 UV-I 2,2 C 44 % 53 % 63 % 999,3 hPa 0,0 l/m 1,7 km/h (1 Bft) 0 min 0,0 km/h (0 Bft)
06.06.2009 12:24 18,9 C 15,6 C 3,4 UV-I 2,0 C 44 % 53 % 57 % 999,3 hPa 0,0 l/m 1,4 km/h (1 Bft) 0 min 0,0 km/h (0 Bft)
06.06.2009 12:26 18,9 C 15,6 C 3,0 UV-I 1,8 C 44 % 53 % 51 % 999,3 hPa 0,0 l/m 1,2 km/h (1 Bft) 0 min 2,3 km/h (1 Bft)
06.06.2009 12:28 18,9 C 15,5 C 3,0 UV-I 1,6 C 43 % 52 % 46 % 999,3 hPa 0,0 l/m 1,7 km/h (1 Bft) 0 min 1,9 km/h (1 Bft)
06.06.2009 12:30 18,9 C 15,4 C 3,0 UV-I 1,6 C 43 % 53 % 46 % 999,3 hPa 0,0 l/m 1,2 km/h (1 Bft) 0 min 0,0 km/h (0 Bft)
06.06.2009 12:32 18,9 C 15,4 C 2,9 UV-I 1,5 C 43 % 53 % 43 % 999,3 hPa 0,0 l/m 1,2 km/h (1 Bft) 0 min 0,0 km/h (0 Bft)
06.06.2009 12:34 19,0 C 15,4 C 2,9 UV-I 1,3 C 43 % 54 % 37 % 999,3 hPa 0,0 l/m 1,0 km/h (0 Bft) 0 min 0,0 km/h (0 Bft)
06.06.2009 12:36 19,0 C 15,5 C 2,8 UV-I 1,2 C 43 % 54 % 34 % 999,3 hPa 0,0 l/m 1,2 km/h (1 Bft) 0 min 0,0 km/h (0 Bft)
06.06.2009 12:38 19,0 C 15,5 C 2,8 UV-I 1,2 C 43 % 54 % 34 % 999,4 hPa 0,0 l/m 1,0 km/h (0 Bft) 0 min 1,8 km/h (1 Bft)
06.06.2009 12:40 19,0 C 15,5 C 2,8 UV-I 1,2 C 43 % 54 % 34 % 999,4 hPa 0,0 l/m 0,7 km/h (0 Bft) 0 min 3,5 km/h (1 Bft)
06.06.2009 12:42 19,0 C 15,5 C 3,0 UV-I 1,2 C 43 % 53 % 34 % 999,4 hPa 0,0 l/m 1,0 km/h (0 Bft) 0 min 7,9 km/h (2 Bft)
06.06.2009 12:44 19,0 C 15,5 C 3,0 UV-I 1,2 C 43 % 53 % 34 % 999,4 hPa 0,0 l/m 1,2 km/h (1 Bft) 0 min 3,2 km/h (1 Bft)
06.06.2009 12:46 19,0 C 15,5 C 3,5 UV-I 1,2 C 43 % 53 % 34 % 999,4 hPa 0,0 l/m 1,0 km/h (0 Bft) 0 min 0,0 km/h (0 Bft)
06.06.2009 12:48 19,0 C 15,6 C 3,5 UV-I 1,2 C 43 % 54 % 34 % 999,4 hPa 0,0 l/m 1,0 km/h (0 Bft) 0 min 0,0 km/h (0 Bft)
06.06.2009 12:50 19,0 C 15,7 C 3,5 UV-I 1,2 C 43 % 54 % 34 % 999,4 hPa 0,0 l/m 1,2 km/h (1 Bft) 0 min 3,7 km/h (1 Bft)
06.06.2009 12:52 19,1 C 15,6 C 3,5 UV-I 1,3 C 43 % 53 % 37 % 999,4 hPa 0,0 l/m 1,2 km/h (1 Bft) 0 min 7,9 km/h (2 Bft)
06.06.2009 12:54 19,0 C 15,6 C 3,5 UV-I 1,4 C 43 % 53 % 40 % 999,4 hPa 0,0 l/m 0,7 km/h (0 Bft) 0 min 0,0 km/h (0 Bft)
06.06.2009 12:56 19,1 C 15,7 C 3,2 UV-I 1,3 C 43 % 53 % 37 % 999,4 hPa 0,0 l/m 0,7 km/h (0 Bft) 0 min 2,1 km/h (1 Bft)
06.06.2009 12:58 19,1 C 15,7 C 3,2 UV-I 1,2 C 43 % 53 % 34 % 999,4 hPa 0,0 l/m 1,0 km/h (0 Bft) 0 min 1,9 km/h (1 Bft)
06.06.2009 13:01 19,1 C 15,7 C 3,2 UV-I 1,2 C 43 % 52 % 34 % 999,4 hPa 0,0 l/m 1,2 km/h (1 Bft) 0 min 2,3 km/h (1 Bft)
06.06.2009 13:04 19,1 C 15,7 C 3,2 UV-I 1,2 C 43 % 52 % 34 % 999,4 hPa 0,0 l/m 1,2 km/h (1 Bft) 0 min 2,3 km/h (1 Bft)
06.06.2009 13:07 19,1 C 15,7 C 3,2 UV-I 1,2 C 43 % 52 % 34 % 999,4 hPa 0,0 l/m 1,2 km/h (1 Bft) 0 min 2,3 km/h (1 Bft)
06.06.2009 13:13 19,2 C 15,5 C 2,6 UV-I 0,8 C 43 % 53 % 23 % 999,4 hPa 0,0 l/m 1,2 km/h (1 Bft) 0 min 2,1 km/h (1 Bft)
06.06.2009 13:16 19,2 C 15,5 C 2,6 UV-I 0,7 C 43 % 53 % 20 % 999,4 hPa 0,0 l/m 1,2 km/h (1 Bft) 0 min 1,6 km/h (1 Bft)
06.06.2009 13:19 19,2 C 15,5 C 2,6 UV-I 0,7 C 43 % 53 % 20 % 999,4 hPa 0,0 l/m 1,2 km/h (1 Bft) 0 min 1,6 km/h (1 Bft)
06.06.2009 13:22 19,3 C 15,5 C 1,6 UV-I 0,2 C 43 % 53 % 6 % 999,8 hPa 0,0 l/m 1,0 km/h (0 Bft) 0 min 1,6 km/h (1 Bft)
06.06.2009 13:24 19,2 C 15,4 C 1,6 UV-I 0,1 C 43 % 53 % 3 % 999,8 hPa 0,0 l/m 0,7 km/h (0 Bft) 0 min 0,0 km/h (0 Bft)
06.06.2009 13:26 19,2 C 15,3 C 1,4 UV-I 0,1 C 43 % 53 % 3 % 999,8 hPa 0,0 l/m 0,7 km/h (0 Bft) 0 min 0,0 km/h (0 Bft)
06.06.2009 13:28 19,4 C 15,3 C 1,4 UV-I 0,0 C 43 % 53 % 0 % 999,8 hPa 0,0 l/m 0,5 km/h (0 Bft) 0 min 0,0 km/h (0 Bft)
06.06.2009 13:30 19,2 C 15,3 C 1,3 UV-I 0,0 C 43 % 54 % 0 % 999,8 hPa 0,0 l/m 0,2 km/h (0 Bft) 0 min 0,0 km/h (0 Bft)
06.06.2009 13:33 19,4 C 15,3 C 1,3 UV-I 0,0 C 43 % 53 % 0 % 999,8 hPa 0,0 l/m 0,7 km/h (0 Bft) 0 min 2,3 km/h (1 Bft)
06.06.2009 13:34 19,4 C 15,2 C 1,3 UV-I 0,0 C 43 % 54 % 0 % 999,8 hPa 0,0 l/m 0,5 km/h (0 Bft) 0 min 0,0 km/h (0 Bft)
06.06.2009 13:38 19,2 C 15,0 C 1,0 UV-I 0,0 C 43 % 54 % 0 % 1000,0 hPa 0,0 l/m 0,7 km/h (0 Bft) 0 min 0,0 km/h (0 Bft)
06.06.2009 13:44 19,2 C 15,0 C 1,0 UV-I 0,0 C 42 % 55 % 0 % 1000,0 hPa 0,0 l/m 0,2 km/h (0 Bft) 0 min 0,0 km/h (0 Bft)
06.06.2009 13:46 19,2 C 14,9 C 0,9 UV-I 0,0 C 43 % 54 % 0 % 1000,0 hPa 0,0 l/m 0,2 km/h (0 Bft) 0 min 2,1 km/h (1 Bft)
06.06.2009 13:48 19,3 C 14,9 C 0,9 UV-I 0,0 C 42 % 55 % 0 % 1000,0 hPa 0,0 l/m 0,0 km/h (0 Bft) 0 min 2,1 km/h (1 Bft)
06.06.2009 13:50 19,3 C 14,8 C 0,9 UV-I 0,0 C 43 % 55 % 0 % 1000,0 hPa 0,0 l/m 0,0 km/h (0 Bft) 0 min 0,0 km/h (0 Bft)
06.06.2009 13:52 19,3 C 14,9 C 0,9 UV-I 0,0 C 43 % 57 % 0 % 1000,0 hPa 0,0 l/m 0,0 km/h (0 Bft) 0 min 2,4 km/h (1 Bft)
06.06.2009 13:54 19,2 C 14,7 C 0,9 UV-I 0,0 C 43 % 58 % 0 % 1000,0 hPa 0,0 l/m 0,2 km/h (0 Bft) 0 min 2,4 km/h (1 Bft)
06.06.2009 13:56 19,2 C 14,7 C 1,1 UV-I 0,0 C 43 % 59 % 0 % 1000,0 hPa 0,0 l/m 0,2 km/h (0 Bft) 0 min 1,9 km/h (1 Bft)
06.06.2009 13:58 19,2 C 14,5 C 1,1 UV-I 0,0 C 43 % 61 % 0 % 999,8 hPa 0,0 l/m 0,5 km/h (0 Bft) 0 min 6,1 km/h (2 Bft)
06.06.2009 14:00 19,2 C 14,4 C 1,0 UV-I 0,0 C 44 % 62 % 0 % 999,8 hPa 0,0 l/m 0,5 km/h (0 Bft) 0 min 6,1 km/h (2 Bft)
06.06.2009 14:02 19,2 C 14,3 C 1,0 UV-I 0,0 C 44 % 64 % 0 % 999,8 hPa 0,0 l/m 0,7 km/h (0 Bft) 0 min 2,7 km/h (1 Bft)
06.06.2009 14:04 19,2 C 14,0 C 1,0 UV-I 0,0 C 44 % 64 % 0 % 999,8 hPa 0,0 l/m 0,7 km/h (0 Bft) 0 min 2,7 km/h (1 Bft)
06.06.2009 14:08 19,2 C 13,8 C 0,9 UV-I 0,0 C 45 % 65 % 0 % 999,8 hPa 0,0 l/m 0,5 km/h (0 Bft) 0 min 0,0 km/h (0 Bft)
06.06.2009 14:10 19,1 C 13,7 C 0,8 UV-I 0,0 C 45 % 67 % 0 % 999,8 hPa 0,0 l/m 0,2 km/h (0 Bft) 0 min 0,0 km/h (0 Bft)
06.06.2009 14:12 19,1 C 13,6 C 0,8 UV-I 0,0 C 45 % 67 % 0 % 999,8 hPa 0,1 l/m 0,2 km/h (0 Bft) 0 min 0,0 km/h (0 Bft)
06.06.2009 14:14 19,1 C 13,6 C 0,8 UV-I 0,0 C 45 % 67 % 0 % 999,8 hPa 0,0 l/m 0,0 km/h (0 Bft) 0 min 0,0 km/h (0 Bft)
06.06.2009 14:16 19,1 C 13,4 C 0,6 UV-I 0,0 C 46 % 68 % 0 % 999,8 hPa 0,0 l/m 0,0 km/h (0 Bft) 0 min 0,0 km/h (0 Bft)
06.06.2009 14:18 19,1 C 13,3 C 0,6 UV-I 0,0 C 46 % 68 % 0 % 999,8 hPa 0,0 l/m 0,0 km/h (0 Bft) 0 min 2,1 km/h (1 Bft)
06.06.2009 14:21 19,1 C 13,1 C 0,7 UV-I 0,0 C 46 % 70 % 0 % 999,8 hPa 0,1 l/m 0,2 km/h (0 Bft) 0 min 0,0 km/h (0 Bft)
06.06.2009 14:27 19,0 C 12,9 C 1,0 UV-I 0,0 C 46 % 71 % 0 % 999,8 hPa 0,0 l/m 0,2 km/h (0 Bft) 0 min 0,0 km/h (0 Bft)
06.06.2009 14:30 19,0 C 12,8 C 1,0 UV-I 0,0 C 46 % 72 % 0 % 999,8 hPa 0,1 l/m 0,2 km/h (0 Bft) 0 min 0,0 km/h (0 Bft)
06.06.2009 14:32 19,0 C 12,8 C 1,0 UV-I 0,0 C 46 % 73 % 0 % 999,8 hPa 0,0 l/m 0,0 km/h (0 Bft) 0 min 0,0 km/h (0 Bft)
06.06.2009 14:34 19,0 C 12,7 C 1,0 UV-I 0,0 C 46 % 73 % 0 % 999,8 hPa 0,0 l/m 0,0 km/h (0 Bft) 0 min 0,0 km/h (0 Bft)
06.06.2009 14:36 19,0 C 12,7 C 0,8 UV-I 0,0 C 47 % 73 % 0 % 999,8 hPa 0,1 l/m 0,0 km/h (0 Bft) 0 min 0,0 km/h (0 Bft)
06.06.2009 14:38 19,0 C 12,6 C 0,8 UV-I 0,0 C 47 % 74 % 0 % 999,8 hPa 0,0 l/m 0,0 km/h (0 Bft) 0 min 0,0 km/h (0 Bft)
06.06.2009 14:40 19,0 C 12,5 C 0,7 UV-I 0,0 C 47 % 74 % 0 % 999,8 hPa 0,0 l/m 0,0 km/h (0 Bft) 0 min 0,0 km/h (0 Bft)
06.06.2009 14:42 19,0 C 12,5 C 0,7 UV-I 0,0 C 47 % 75 % 0 % 999,8 hPa 0,0 l/m 0,0 km/h (0 Bft) 0 min 0,0 km/h (0 Bft)
06.06.2009 14:44 19,0 C 12,5 C 0,7 UV-I 0,0 C 47 % 75 % 0 % 999,8 hPa 0,1 l/m 0,0 km/h (0 Bft) 0 min 0,0 km/h (0 Bft)
06.06.2009 14:46 18,9 C 12,5 C 0,9 UV-I 0,0 C 47 % 75 % 0 % 999,8 hPa 0,1 l/m 0,0 km/h (0 Bft) 0 min 0,0 km/h (0 Bft)
06.06.2009 14:48 18,9 C 12,4 C 0,9 UV-I 0,0 C 47 % 76 % 0 % 999,8 hPa 0,0 l/m 0,0 km/h (0 Bft) 0 min 0,0 km/h (0 Bft)
06.06.2009 14:50 18,9 C 12,3 C 1,4 UV-I 0,0 C 47 % 76 % 0 % 999,8 hPa 0,1 l/m 0,0 km/h (0 Bft) 0 min 0,0 km/h (0 Bft)
06.06.2009 14:52 18,9 C 12,3 C 1,4 UV-I 0,0 C 47 % 77 % 0 % 999,8 hPa 0,1 l/m 0,0 km/h (0 Bft) 0 min 0,0 km/h (0 Bft)
06.06.2009 14:54 18,9 C 12,3 C 1,4 UV-I 0,0 C 47 % 77 % 0 % 999,8 hPa 0,0 l/m 0,0 km/h (0 Bft) 0 min 0,0 km/h (0 Bft)
06.06.2009 14:56 18,9 C 12,3 C 1,5 UV-I 0,0 C 47 % 77 % 0 % 999,8 hPa 0,0 l/m 0,0 km/h (0 Bft) 0 min 0,0 km/h (0 Bft)
06.06.2009 14:58 18,9 C 12,2 C 1,5 UV-I 0,0 C 48 % 78 % 0 % 999,4 hPa 0,1 l/m 0,2 km/h (0 Bft) 0 min 1,8 km/h (1 Bft)
06.06.2009 15:00 18,9 C 12,3 C 1,5 UV-I 0,0 C 48 % 78 % 0 % 999,4 hPa 0,0 l/m 0,2 km/h (0 Bft) 0 min 1,8 km/h (1 Bft)
06.06.2009 15:02 18,9 C 12,3 C 1,5 UV-I 0,0 C 48 % 78 % 0 % 999,4 hPa 0,0 l/m 0,2 km/h (0 Bft) 0 min 0,0 km/h (0 Bft)
06.06.2009 15:04 18,9 C 12,1 C 1,5 UV-I 0,0 C 48 % 78 % 0 % 999,4 hPa 0,1 l/m 0,2 km/h (0 Bft) 0 min 0,0 km/h (0 Bft)
06.06.2009 15:08 18,9 C 12,1 C 1,5 UV-I 0,0 C 48 % 79 % 0 % 999,4 hPa 0,0 l/m 0,0 km/h (0 Bft) 0 min 0,0 km/h (0 Bft)
06.06.2009 15:10 18,9 C 12,1 C 1,7 UV-I 0,0 C 48 % 79 % 0 % 999,4 hPa 0,1 l/m 0,0 km/h (0 Bft) 0 min 0,0 km/h (0 Bft)
06.06.2009 15:12 18,9 C 12,0 C 1,7 UV-I 0,0 C 48 % 79 % 0 % 999,4 hPa 0,0 l/m 0,0 km/h (0 Bft) 0 min 0,0 km/h (0 Bft)
06.06.2009 15:14 18,9 C 12,0 C 1,7 UV-I 0,0 C 48 % 79 % 0 % 999,4 hPa 0,0 l/m 0,0 km/h (0 Bft) 0 min 0,0 km/h (0 Bft)
06.06.2009 15:16 18,9 C 12,0 C 1,6 UV-I 0,0 C 48 % 80 % 0 % 999,4 hPa 0,0 l/m 0,0 km/h (0 Bft) 0 min 0,0 km/h (0 Bft)
06.06.2009 15:18 18,9 C 12,0 C 1,6 UV-I 0,0 C 48 % 80 % 0 % 999,8 hPa 0,0 l/m 0,0 km/h (0 Bft) 0 min 0,0 km/h (0 Bft)
06.06.2009 15:20 18,9 C 12,0 C 1,6 UV-I 0,0 C 48 % 80 % 0 % 999,8 hPa 0,1 l/m 0,0 km/h (0 Bft) 0 min 0,0 km/h (0 Bft)
06.06.2009 15:22 18,9 C 12,0 C 1,6 UV-I 0,0 C 48 % 80 % 0 % 999,8 hPa 0,0 l/m 0,2 km/h (0 Bft) 0 min 3,1 km/h (1 Bft)
06.06.2009 15:24 18,9 C 12,0 C 1,6 UV-I 0,0 C 48 % 79 % 0 % 999,8 hPa 0,0 l/m 0,5 km/h (0 Bft) 0 min 3,1 km/h (1 Bft)
06.06.2009 15:26 18,9 C 11,9 C 1,3 UV-I 0,0 C 48 % 80 % 0 % 999,8 hPa 0,1 l/m 0,5 km/h (0 Bft) 0 min 0,0 km/h (0 Bft)
06.06.2009 15:28 18,9 C 11,9 C 1,3 UV-I 0,0 C 48 % 81 % 0 % 999,8 hPa 0,0 l/m 0,5 km/h (0 Bft) 0 min 0,0 km/h (0 Bft)
06.06.2009 15:30 18,9 C 11,9 C 1,3 UV-I 0,0 C 49 % 81 % 0 % 999,8 hPa 0,0 l/m 0,2 km/h (0 Bft) 0 min 0,0 km/h (0 Bft)
06.06.2009 15:34 18,9 C 11,9 C 1,3 UV-I 0,0 C 49 % 81 % 0 % 999,8 hPa 0,2 l/m 0,2 km/h (0 Bft) 0 min 0,0 km/h (0 Bft)
06.06.2009 15:36 18,9 C 11,9 C 1,3 UV-I 0,0 C 49 % 81 % 0 % 999,8 hPa 0,0 l/m 0,2 km/h (0 Bft) 0 min 0,0 km/h (0 Bft)
06.06.2009 15:38 18,9 C 11,9 C 1,3 UV-I 0,0 C 49 % 81 % 0 % 999,8 hPa 0,0 l/m 0,2 km/h (0 Bft) 0 min 0,0 km/h (0 Bft)
06.06.2009 15:41 18,9 C 11,9 C 1,9 UV-I 0,0 C 49 % 81 % 0 % 999,3 hPa 0,0 l/m 0,0 km/h (0 Bft) 0 min 0,0 km/h (0 Bft)
06.06.2009 15:44 18,9 C 11,9 C 1,9 UV-I 0,0 C 49 % 82 % 0 % 999,3 hPa 0,0 l/m 0,0 km/h (0 Bft) 0 min 0,0 km/h (0 Bft)
06.06.2009 15:46 19,0 C 11,9 C 2,1 UV-I 0,0 C 49 % 82 % 0 % 999,3 hPa 0,1 l/m 0,0 km/h (0 Bft) 0 min 0,0 km/h (0 Bft)
06.06.2009 15:48 19,0 C 11,9 C 2,1 UV-I 0,0 C 49 % 82 % 0 % 999,3 hPa 0,1 l/m 0,0 km/h (0 Bft) 0 min 0,0 km/h (0 Bft)
06.06.2009 15:50 19,0 C 11,9 C 2,1 UV-I 0,0 C 49 % 82 % 0 % 999,3 hPa 0,0 l/m 0,2 km/h (0 Bft) 0 min 0,0 km/h (0 Bft)
06.06.2009 15:52 19,0 C 11,9 C 2,4 UV-I 0,0 C 49 % 82 % 0 % 999,3 hPa 0,0 l/m 0,2 km/h (0 Bft) 0 min 0,0 km/h (0 Bft)
06.06.2009 15:54 19,0 C 11,9 C 2,4 UV-I 0,0 C 50 % 82 % 0 % 999,3 hPa 0,1 l/m 0,2 km/h (0 Bft) 0 min 0,0 km/h (0 Bft)
06.06.2009 15:56 19,0 C 11,9 C 2,9 UV-I 0,0 C 50 % 82 % 0 % 999,3 hPa 0,0 l/m 0,2 km/h (0 Bft) 0 min 0,0 km/h (0 Bft)
06.06.2009 15:58 19,0 C 11,9 C 2,9 UV-I 0,0 C 50 % 82 % 0 % 999,2 hPa 0,1 l/m 0,2 km/h (0 Bft) 0 min 0,0 km/h (0 Bft)
06.06.2009 16:00 19,0 C 12,0 C 2,9 UV-I 0,0 C 50 % 83 % 0 % 999,2 hPa 0,0 l/m 0,0 km/h (0 Bft) 0 min 0,0 km/h (0 Bft)
06.06.2009 16:02 19,0 C 12,0 C 2,5 UV-I 0,0 C 50 % 83 % 0 % 999,2 hPa 0,0 l/m 0,0 km/h (0 Bft) 0 min 0,0 km/h (0 Bft)
06.06.2009 16:04 19,0 C 12,0 C 2,5 UV-I 0,0 C 50 % 83 % 0 % 999,2 hPa 0,0 l/m 0,0 km/h (0 Bft) 0 min 0,0 km/h (0 Bft)
06.06.2009 16:10 19,0 C 12,0 C 2,0 UV-I 0,0 C 50 % 82 % 0 % 999,2 hPa 0,0 l/m 0,0 km/h (0 Bft) 0 min 0,0 km/h (0 Bft)
06.06.2009 16:14 19,0 C 12,0 C 2,0 UV-I 0,0 C 50 % 83 % 0 % 999,2 hPa 0,1 l/m 0,0 km/h (0 Bft) 0 min 0,0 km/h (0 Bft)
06.06.2009 16:16 19,0 C 12,0 C 1,9 UV-I 0,0 C 51 % 83 % 0 % 999,2 hPa 0,0 l/m 0,2 km/h (0 Bft) 0 min 0,0 km/h (0 Bft)
06.06.2009 16:18 19,1 C 12,1 C 1,2 UV-I 0,0 C 51 % 83 % 0 % 999,5 hPa 0,1 l/m 0,0 km/h (0 Bft) 0 min 0,0 km/h (0 Bft)
06.06.2009 16:20 19,0 C 12,1 C 1,2 UV-I 0,0 C 51 % 83 % 0 % 999,5 hPa 0,0 l/m 0,0 km/h (0 Bft) 0 min 0,0 km/h (0 Bft)
06.06.2009 16:22 19,0 C 12,0 C 1,7 UV-I 0,0 C 51 % 84 % 0 % 999,5 hPa 0,0 l/m 0,0 km/h (0 Bft) 0 min 0,0 km/h (0 Bft)
06.06.2009 16:24 19,0 C 12,1 C 1,7 UV-I 0,0 C 51 % 84 % 0 % 999,5 hPa 0,0 l/m 0,0 km/h (0 Bft) 0 min 1,6 km/h (1 Bft)
06.06.2009 16:26 19,0 C 12,0 C 1,7 UV-I 0,0 C 51 % 83 % 0 % 999,5 hPa 0,0 l/m 0,0 km/h (0 Bft) 0 min 0,0 km/h (0 Bft)
06.06.2009 16:28 19,0 C 12,1 C 2,0 UV-I 0,0 C 51 % 83 % 0 % 999,5 hPa 0,0 l/m 0,0 km/h (0 Bft) 0 min 0,0 km/h (0 Bft)
06.06.2009 16:30 19,0 C 12,1 C 2,0 UV-I 0,0 C 51 % 83 % 0 % 999,5 hPa 0,0 l/m 0,0 km/h (0 Bft) 0 min 0,0 km/h (0 Bft)
06.06.2009 16:32 19,0 C 12,1 C 1,7 UV-I 0,0 C 51 % 84 % 0 % 999,5 hPa 0,1 l/m 0,0 km/h (0 Bft) 0 min 0,0 km/h (0 Bft)
06.06.2009 16:34 19,0 C 12,1 C 1,7 UV-I 0,0 C 51 % 84 % 0 % 999,5 hPa 0,0 l/m 0,0 km/h (0 Bft) 0 min 0,0 km/h (0 Bft)
06.06.2009 16:36 19,0 C 12,2 C 1,7 UV-I 0,0 C 51 % 83 % 0 % 999,5 hPa 0,0 l/m 0,0 km/h (0 Bft) 0 min 0,0 km/h (0 Bft)
06.06.2009 16:38 19,0 C 12,1 C 1,7 UV-I 0,0 C 51 % 83 % 0 % 999,3 hPa 0,0 l/m 0,0 km/h (0 Bft) 0 min 1,8 km/h (1 Bft)
06.06.2009 16:40 19,0 C 12,1 C 1,7 UV-I 0,0 C 51 % 83 % 0 % 999,3 hPa 0,0 l/m 0,0 km/h (0 Bft) 0 min 0,0 km/h (0 Bft)
06.06.2009 16:42 19,0 C 12,0 C 1,7 UV-I 0,0 C 51 % 83 % 0 % 999,3 hPa 0,0 l/m 0,0 km/h (0 Bft) 0 min 0,0 km/h (0 Bft)
06.06.2009 16:44 19,0 C 12,1 C 1,7 UV-I 0,0 C 51 % 83 % 0 % 999,3 hPa 0,0 l/m 0,0 km/h (0 Bft) 0 min 0,0 km/h (0 Bft)
06.06.2009 16:46 19,0 C 12,1 C 1,7 UV-I 0,0 C 51 % 83 % 0 % 999,3 hPa 0,1 l/m 0,0 km/h (0 Bft) 0 min 0,0 km/h (0 Bft)
06.06.2009 16:48 19,0 C 12,1 C 1,5 UV-I 0,0 C 51 % 83 % 0 % 999,3 hPa 0,0 l/m 0,0 km/h (0 Bft) 0 min 0,0 km/h (0 Bft)
06.06.2009 16:50 19,0 C 12,1 C 1,5 UV-I 0,0 C 51 % 83 % 0 % 999,3 hPa 0,0 l/m 0,0 km/h (0 Bft) 0 min 0,0 km/h (0 Bft)
06.06.2009 16:52 19,0 C 12,0 C 1,4 UV-I 0,0 C 51 % 83 % 0 % 999,3 hPa 0,0 l/m 0,0 km/h (0 Bft) 0 min 0,0 km/h (0 Bft)
06.06.2009 16:54 19,0 C 12,0 C 1,4 UV-I 0,0 C 51 % 83 % 0 % 999,3 hPa 0,0 l/m 0,2 km/h (0 Bft) 0 min 0,0 km/h (0 Bft)
06.06.2009 16:56 19,0 C 12,0 C 1,4 UV-I 0,0 C 51 % 83 % 0 % 999,3 hPa 0,1 l/m 0,2 km/h (0 Bft) 0 min 0,0 km/h (0 Bft)
06.06.2009 16:58 19,0 C 12,0 C 1,0 UV-I 0,0 C 51 % 83 % 0 % 999,4 hPa 0,0 l/m 0,2 km/h (0 Bft) 0 min 0,0 km/h (0 Bft)
06.06.2009 17:00 19,0 C 11,9 C 1,0 UV-I 0,0 C 51 % 83 % 0 % 999,4 hPa 0,0 l/m 0,2 km/h (0 Bft) 0 min 0,0 km/h (0 Bft)
06.06.2009 17:02 19,0 C 12,0 C 0,9 UV-I 0,0 C 51 % 83 % 0 % 999,4 hPa 0,1 l/m 0,2 km/h (0 Bft) 0 min 0,0 km/h (0 Bft)
06.06.2009 17:04 19,0 C 11,9 C 0,9 UV-I 0,0 C 51 % 83 % 0 % 999,4 hPa 0,1 l/m 0,2 km/h (0 Bft) 0 min 1,6 km/h (1 Bft)
06.06.2009 17:08 19,0 C 11,9 C 0,7 UV-I 0,0 C 51 % 84 % 0 % 999,4 hPa 0,1 l/m 0,2 km/h (0 Bft) 0 min 0,0 km/h (0 Bft)
06.06.2009 17:10 19,0 C 11,9 C 0,7 UV-I 0,0 C 51 % 84 % 0 % 999,4 hPa 0,0 l/m 0,2 km/h (0 Bft) 0 min 0,0 km/h (0 Bft)
06.06.2009 17:12 19,0 C 11,8 C 0,7 UV-I 0,0 C 51 % 84 % 0 % 999,4 hPa 0,0 l/m 0,0 km/h (0 Bft) 0 min 0,0 km/h (0 Bft)
06.06.2009 17:14 19,0 C 11,9 C 0,7 UV-I 0,0 C 51 % 84 % 0 % 999,4 hPa 0,1 l/m 0,0 km/h (0 Bft) 0 min 0,0 km/h (0 Bft)
06.06.2009 17:16 19,0 C 11,8 C 0,7 UV-I 0,0 C 51 % 84 % 0 % 999,4 hPa 0,0 l/m 0,0 km/h (0 Bft) 0 min 0,0 km/h (0 Bft)
06.06.2009 17:19 19,0 C 11,9 C 0,7 UV-I 0,0 C 51 % 84 % 0 % 999,5 hPa 0,1 l/m 0,0 km/h (0 Bft) 0 min 0,0 km/h (0 Bft)
06.06.2009 17:22 19,0 C 11,9 C 1,1 UV-I 0,0 C 51 % 84 % 0 % 999,5 hPa 0,0 l/m 0,0 km/h (0 Bft) 0 min 0,0 km/h (0 Bft)
06.06.2009 17:24 19,0 C 11,9 C 1,1 UV-I 0,0 C 51 % 84 % 0 % 999,5 hPa 0,0 l/m 0,0 km/h (0 Bft) 0 min 0,0 km/h (0 Bft)
06.06.2009 17:26 19,0 C 11,9 C 1,1 UV-I 0,0 C 51 % 84 % 0 % 999,5 hPa 0,1 l/m 0,0 km/h (0 Bft) 0 min 0,0 km/h (0 Bft)
06.06.2009 17:28 19,0 C 11,9 C 1,0 UV-I 0,0 C 51 % 84 % 0 % 999,5 hPa 0,0 l/m 0,0 km/h (0 Bft) 0 min 0,0 km/h (0 Bft)
06.06.2009 17:30 19,0 C 11,9 C 1,0 UV-I 0,0 C 51 % 84 % 0 % 999,5 hPa 0,0 l/m 0,0 km/h (0 Bft) 0 min 0,0 km/h (0 Bft)
06.06.2009 17:32 19,0 C 11,9 C 1,0 UV-I 0,0 C 51 % 84 % 0 % 999,5 hPa 0,2 l/m 0,0 km/h (0 Bft) 0 min 0,0 km/h (0 Bft)
06.06.2009 17:34 19,0 C 11,9 C 1,0 UV-I 0,0 C 51 % 84 % 0 % 999,5 hPa 0,0 l/m 0,0 km/h (0 Bft) 0 min 0,0 km/h (0 Bft)
06.06.2009 17:36 19,0 C 11,9 C 1,0 UV-I 0,0 C 51 % 84 % 0 % 999,5 hPa 0,0 l/m 0,0 km/h (0 Bft) 0 min 0,0 km/h (0 Bft)
06.06.2009 17:38 19,0 C 11,8 C 1,0 UV-I 0,0 C 51 % 85 % 0 % 999,3 hPa 0,1 l/m 0,0 km/h (0 Bft) 0 min 1,8 km/h (1 Bft)
06.06.2009 17:40 18,9 C 11,8 C 1,0 UV-I 0,0 C 51 % 84 % 0 % 999,3 hPa 0,0 l/m 0,2 km/h (0 Bft) 0 min 0,0 km/h (0 Bft)
06.06.2009 17:42 18,9 C 11,7 C 1,2 UV-I 0,0 C 51 % 84 % 0 % 999,3 hPa 0,0 l/m 0,2 km/h (0 Bft) 0 min 0,0 km/h (0 Bft)
06.06.2009 17:44 18,9 C 11,7 C 1,2 UV-I 0,0 C 51 % 84 % 0 % 999,3 hPa 0,1 l/m 0,2 km/h (0 Bft) 0 min 0,0 km/h (0 Bft)
06.06.2009 17:46 18,9 C 11,6 C 1,2 UV-I 0,0 C 51 % 85 % 0 % 999,3 hPa 0,0 l/m 0,2 km/h (0 Bft) 0 min 0,0 km/h (0 Bft)
06.06.2009 17:48 18,9 C 11,6 C 1,0 UV-I 0,0 C 51 % 85 % 0 % 999,3 hPa 0,1 l/m 0,2 km/h (0 Bft) 0 min 0,0 km/h (0 Bft)
06.06.2009 17:50 18,9 C 11,6 C 1,0 UV-I 0,0 C 51 % 85 % 0 % 999,3 hPa 0,1 l/m 0,0 km/h (0 Bft) 0 min 0,0 km/h (0 Bft)
06.06.2009 17:52 18,9 C 11,6 C 0,8 UV-I 0,0 C 51 % 85 % 0 % 999,3 hPa 0,0 l/m 0,0 km/h (0 Bft) 0 min 0,0 km/h (0 Bft)
06.06.2009 17:57 18,9 C 11,5 C 0,8 UV-I 0,0 C 52 % 85 % 0 % 999,2 hPa 0,1 l/m 0,0 km/h (0 Bft) 0 min 0,0 km/h (0 Bft)
06.06.2009 18:00 18,9 C 11,6 C 0,8 UV-I 0,0 C 52 % 85 % 0 % 999,2 hPa 0,1 l/m 0,0 km/h (0 Bft) 0 min 0,0 km/h (0 Bft)
06.06.2009 18:02 18,9 C 11,5 C 0,7 UV-I 0,0 C 52 % 85 % 0 % 999,2 hPa 0,0 l/m 0,2 km/h (0 Bft) 0 min 0,0 km/h (0 Bft)
06.06.2009 18:04 18,9 C 11,5 C 0,7 UV-I 0,0 C 52 % 85 % 0 % 999,2 hPa 0,0 l/m 0,2 km/h (0 Bft) 0 min 0,0 km/h (0 Bft)
06.06.2009 18:08 18,9 C 11,5 C 0,7 UV-I 0,0 C 52 % 85 % 0 % 999,2 hPa 0,1 l/m 0,2 km/h (0 Bft) 0 min 0,0 km/h (0 Bft)
06.06.2009 18:10 18,9 C 11,5 C 0,7 UV-I 0,0 C 52 % 86 % 0 % 999,2 hPa 0,0 l/m 0,2 km/h (0 Bft) 0 min 0,0 km/h (0 Bft)
06.06.2009 18:12 18,9 C 11,5 C 0,5 UV-I 0,0 C 52 % 86 % 0 % 999,2 hPa 0,1 l/m 0,0 km/h (0 Bft) 0 min 0,0 km/h (0 Bft)
06.06.2009 18:14 18,8 C 11,5 C 0,5 UV-I 0,0 C 52 % 86 % 0 % 999,2 hPa 0,1 l/m 0,0 km/h (0 Bft) 0 min 0,0 km/h (0 Bft)
06.06.2009 18:16 18,9 C 11,5 C 0,5 UV-I 0,0 C 52 % 86 % 0 % 999,2 hPa 0,0 l/m 0,0 km/h (0 Bft) 0 min 0,0 km/h (0 Bft)
06.06.2009 18:18 18,9 C 11,4 C 0,5 UV-I 0,0 C 52 % 86 % 0 % 999,3 hPa 0,0 l/m 0,0 km/h (0 Bft) 0 min 0,0 km/h (0 Bft)
06.06.2009 18:20 18,8 C 11,5 C 0,5 UV-I 0,0 C 52 % 86 % 0 % 999,3 hPa 0,1 l/m 0,0 km/h (0 Bft) 0 min 0,0 km/h (0 Bft)
06.06.2009 18:22 18,8 C 11,5 C 0,6 UV-I 0,0 C 52 % 86 % 0 % 999,3 hPa 0,0 l/m 0,2 km/h (0 Bft) 0 min 0,0 km/h (0 Bft)
06.06.2009 18:24 18,8 C 11,5 C 0,6 UV-I 0,0 C 52 % 86 % 0 % 999,3 hPa 0,0 l/m 0,2 km/h (0 Bft) 0 min 0,0 km/h (0 Bft)
06.06.2009 18:26 18,8 C 11,4 C 0,6 UV-I 0,0 C 52 % 86 % 0 % 999,3 hPa 0,0 l/m 0,2 km/h (0 Bft) 0 min 0,0 km/h (0 Bft)
06.06.2009 18:28 18,8 C 11,4 C 0,8 UV-I 0,0 C 52 % 86 % 0 % 999,3 hPa 0,1 l/m 0,2 km/h (0 Bft) 0 min 0,0 km/h (0 Bft)
06.06.2009 18:30 18,8 C 11,3 C 0,8 UV-I 0,0 C 52 % 86 % 0 % 999,3 hPa 0,0 l/m 0,2 km/h (0 Bft) 0 min 0,0 km/h (0 Bft)
06.06.2009 18:32 18,8 C 11,3 C 0,8 UV-I 0,0 C 52 % 86 % 0 % 999,3 hPa 0,0 l/m 0,0 km/h (0 Bft) 0 min 0,0 km/h (0 Bft)
06.06.2009 18:34 18,8 C 11,3 C 0,8 UV-I 0,0 C 52 % 86 % 0 % 999,3 hPa 0,1 l/m 0,0 km/h (0 Bft) 0 min 0,0 km/h (0 Bft)
06.06.2009 18:36 18,8 C 11,3 C 0,8 UV-I 0,0 C 52 % 86 % 0 % 999,3 hPa 0,0 l/m 0,0 km/h (0 Bft) 0 min 0,0 km/h (0 Bft)
06.06.2009 18:38 18,8 C 11,3 C 0,7 UV-I 0,0 C 52 % 86 % 0 % 999,2 hPa 0,0 l/m 0,2 km/h (0 Bft) 0 min 0,0 km/h (0 Bft)
06.06.2009 18:40 18,8 C 11,3 C 0,7 UV-I 0,0 C 52 % 86 % 0 % 999,2 hPa 0,1 l/m 0,2 km/h (0 Bft) 0 min 0,0 km/h (0 Bft)
06.06.2009 18:42 18,8 C 11,3 C 0,8 UV-I 0,0 C 53 % 86 % 0 % 999,2 hPa 0,0 l/m 0,2 km/h (0 Bft) 0 min 0,0 km/h (0 Bft)
06.06.2009 18:44 18,8 C 11,2 C 0,8 UV-I 0,0 C 53 % 86 % 0 % 999,2 hPa 0,0 l/m 0,2 km/h (0 Bft) 0 min 0,0 km/h (0 Bft)
06.06.2009 18:46 18,8 C 11,2 C 0,8 UV-I 0,0 C 53 % 86 % 0 % 999,2 hPa 0,0 l/m 0,2 km/h (0 Bft) 0 min 0,0 km/h (0 Bft)
06.06.2009 18:48 18,8 C 11,3 C 0,8 UV-I 0,0 C 53 % 86 % 0 % 999,2 hPa 0,0 l/m 0,0 km/h (0 Bft) 0 min 0,0 km/h (0 Bft)
06.06.2009 18:50 18,8 C 11,2 C 0,8 UV-I 0,0 C 53 % 86 % 0 % 999,2 hPa 0,0 l/m 0,0 km/h (0 Bft) 0 min 0,0 km/h (0 Bft)
06.06.2009 18:52 18,8 C 11,3 C 0,8 UV-I 0,0 C 53 % 86 % 0 % 999,2 hPa 0,0 l/m 0,0 km/h (0 Bft) 0 min 0,0 km/h (0 Bft)
06.06.2009 18:54 18,8 C 11,2 C 0,8 UV-I 0,0 C 53 % 86 % 0 % 999,2 hPa 0,1 l/m 0,0 km/h (0 Bft) 0 min 0,0 km/h (0 Bft)
06.06.2009 18:56 18,8 C 11,2 C 0,8 UV-I 0,0 C 53 % 86 % 0 % 999,2 hPa 0,0 l/m 0,0 km/h (0 Bft) 0 min 0,0 km/h (0 Bft)
06.06.2009 18:58 18,8 C 11,3 C 0,7 UV-I 0,0 C 53 % 87 % 0 % 999,1 hPa 0,0 l/m 0,0 km/h (0 Bft) 0 min 0,0 km/h (0 Bft)
06.06.2009 19:00 18,8 C 11,2 C 0,7 UV-I 0,0 C 53 % 87 % 0 % 999,1 hPa 0,0 l/m 0,0 km/h (0 Bft) 0 min 0,0 km/h (0 Bft)
06.06.2009 19:02 18,8 C 11,3 C 0,7 UV-I 0,0 C 53 % 87 % 0 % 999,1 hPa 0,0 l/m 0,0 km/h (0 Bft) 0 min 0,0 km/h (0 Bft)
06.06.2009 19:04 18,8 C 11,2 C 0,7 UV-I 0,0 C 53 % 87 % 0 % 999,1 hPa 0,0 l/m 0,0 km/h (0 Bft) 0 min 0,0 km/h (0 Bft)
06.06.2009 19:08 18,8 C 11,2 C 0,6 UV-I 0,0 C 53 % 87 % 0 % 999,1 hPa 0,0 l/m 0,0 km/h (0 Bft) 0 min 0,0 km/h (0 Bft)
06.06.2009 19:10 18,8 C 11,2 C 0,6 UV-I 0,0 C 53 % 87 % 0 % 999,1 hPa 0,1 l/m 0,0 km/h (0 Bft) 0 min 0,0 km/h (0 Bft)
06.06.2009 19:12 18,8 C 11,3 C 0,5 UV-I 0,0 C 53 % 86 % 0 % 999,1 hPa 0,0 l/m 0,2 km/h (0 Bft) 0 min 0,0 km/h (0 Bft)
06.06.2009 19:14 18,8 C 11,2 C 0,5 UV-I 0,0 C 53 % 86 % 0 % 999,1 hPa 0,0 l/m 0,2 km/h (0 Bft) 0 min 0,0 km/h (0 Bft)
06.06.2009 19:16 18,7 C 11,2 C 0,5 UV-I 0,0 C 53 % 87 % 0 % 999,1 hPa 0,0 l/m 0,2 km/h (0 Bft) 0 min 0,0 km/h (0 Bft)
06.06.2009 19:18 18,7 C 11,1 C 0,5 UV-I 0,0 C 53 % 87 % 0 % 999,2 hPa 0,0 l/m 0,2 km/h (0 Bft) 0 min 0,0 km/h (0 Bft)
06.06.2009 19:20 18,8 C 11,1 C 0,5 UV-I 0,0 C 53 % 87 % 0 % 999,2 hPa 0,0 l/m 0,2 km/h (0 Bft) 0 min 0,0 km/h (0 Bft)
06.06.2009 19:22 18,7 C 11,1 C 0,4 UV-I 0,0 C 53 % 87 % 0 % 999,2 hPa 0,0 l/m 0,0 km/h (0 Bft) 0 min 0,0 km/h (0 Bft)
06.06.2009 19:24 18,7 C 11,1 C 0,4 UV-I 0,0 C 53 % 87 % 0 % 999,2 hPa 0,0 l/m 0,0 km/h (0 Bft) 0 min 0,0 km/h (0 Bft)
06.06.2009 19:26 18,7 C 11,1 C 0,4 UV-I 0,0 C 53 % 87 % 0 % 999,2 hPa 0,0 l/m 0,2 km/h (0 Bft) 0 min 0,0 km/h (0 Bft)
06.06.2009 19:28 18,7 C 11,1 C 0,3 UV-I 0,0 C 53 % 87 % 0 % 999,2 hPa 0,0 l/m 0,2 km/h (0 Bft) 0 min 0,0 km/h (0 Bft)
06.06.2009 19:30 18,7 C 11,1 C 0,3 UV-I 0,0 C 53 % 87 % 0 % 999,2 hPa 0,0 l/m 0,2 km/h (0 Bft) 0 min 0,0 km/h (0 Bft)
06.06.2009 19:32 18,7 C 11,1 C 0,3 UV-I 0,0 C 53 % 87 % 0 % 999,2 hPa 0,0 l/m 0,2 km/h (0 Bft) 0 min 0,0 km/h (0 Bft)
06.06.2009 19:34 18,7 C 11,0 C 0,3 UV-I 0,0 C 53 % 87 % 0 % 999,2 hPa 0,0 l/m 0,0 km/h (0 Bft) 0 min 0,0 km/h (0 Bft)
06.06.2009 19:36 18,7 C 11,0 C 0,3 UV-I 0,0 C 53 % 87 % 0 % 999,2 hPa 0,0 l/m 0,0 km/h (0 Bft) 0 min 0,0 km/h (0 Bft)
06.06.2009 19:38 18,7 C 11,0 C 0,2 UV-I 0,0 C 53 % 87 % 0 % 999,2 hPa 0,0 l/m 0,0 km/h (0 Bft) 0 min 0,0 km/h (0 Bft)
06.06.2009 19:40 18,7 C 11,0 C 0,2 UV-I 0,0 C 53 % 87 % 0 % 999,2 hPa 0,0 l/m 0,0 km/h (0 Bft) 0 min 0,0 km/h (0 Bft)
06.06.2009 19:42 18,7 C 11,1 C 0,3 UV-I 0,0 C 53 % 87 % 0 % 999,2 hPa 0,0 l/m 0,0 km/h (0 Bft) 0 min 0,0 km/h (0 Bft)
06.06.2009 19:44 18,7 C 11,0 C 0,3 UV-I 0,0 C 53 % 87 % 0 % 999,2 hPa 0,2 l/m 0,0 km/h (0 Bft) 0 min 0,0 km/h (0 Bft)
06.06.2009 19:46 18,7 C 11,0 C 0,3 UV-I 0,0 C 53 % 87 % 0 % 999,2 hPa 0,0 l/m 0,0 km/h (0 Bft) 0 min 0,0 km/h (0 Bft)
06.06.2009 19:48 18,7 C 10,9 C 0,3 UV-I 0,0 C 53 % 87 % 0 % 999,2 hPa 0,0 l/m 0,0 km/h (0 Bft) 0 min 0,0 km/h (0 Bft)
06.06.2009 19:50 18,6 C 10,9 C 0,3 UV-I 0,0 C 53 % 87 % 0 % 999,2 hPa 0,0 l/m 0,0 km/h (0 Bft) 0 min 0,0 km/h (0 Bft)
06.06.2009 19:52 18,7 C 10,9 C 0,2 UV-I 0,0 C 53 % 87 % 0 % 999,2 hPa 0,0 l/m 0,0 km/h (0 Bft) 0 min 0,0 km/h (0 Bft)
06.06.2009 19:54 18,6 C 10,9 C 0,2 UV-I 0,0 C 53 % 87 % 0 % 999,2 hPa 0,0 l/m 0,0 km/h (0 Bft) 0 min 0,0 km/h (0 Bft)
06.06.2009 19:56 18,6 C 10,9 C 0,2 UV-I 0,0 C 53 % 87 % 0 % 999,2 hPa 0,0 l/m 0,0 km/h (0 Bft) 0 min 0,0 km/h (0 Bft)
06.06.2009 19:58 18,6 C 10,8 C 0,2 UV-I 0,0 C 53 % 87 % 0 % 998,8 hPa 0,0 l/m 0,0 km/h (0 Bft) 0 min 0,0 km/h (0 Bft)
06.06.2009 20:00 18,6 C 10,9 C 0,2 UV-I 0,0 C 53 % 87 % 0 % 998,8 hPa 0,0 l/m 0,0 km/h (0 Bft) 0 min 0,0 km/h (0 Bft)
06.06.2009 20:02 18,6 C 10,8 C 0,2 UV-I 0,0 C 53 % 87 % 0 % 998,8 hPa 0,0 l/m 0,0 km/h (0 Bft) 0 min 0,0 km/h (0 Bft)
06.06.2009 20:04 18,6 C 10,9 C 0,2 UV-I 0,0 C 53 % 87 % 0 % 998,8 hPa 0,0 l/m 0,0 km/h (0 Bft) 0 min 0,0 km/h (0 Bft)
06.06.2009 20:08 18,6 C 10,8 C 0,2 UV-I 0,0 C 53 % 87 % 0 % 998,8 hPa 0,0 l/m 0,2 km/h (0 Bft) 0 min 0,0 km/h (0 Bft)
06.06.2009 20:10 18,6 C 10,9 C 0,2 UV-I 0,0 C 53 % 87 % 0 % 998,8 hPa 0,0 l/m 0,2 km/h (0 Bft) 0 min 0,0 km/h (0 Bft)
06.06.2009 20:12 18,6 C 10,9 C 0,1 UV-I 0,0 C 53 % 88 % 0 % 998,8 hPa 0,0 l/m 0,2 km/h (0 Bft) 0 min 0,0 km/h (0 Bft)
06.06.2009 20:14 18,6 C 10,8 C 0,1 UV-I 0,0 C 53 % 87 % 0 % 998,8 hPa 0,0 l/m 0,2 km/h (0 Bft) 0 min 0,0 km/h (0 Bft)
06.06.2009 20:16 18,6 C 10,9 C 0,1 UV-I 0,0 C 53 % 88 % 0 % 998,8 hPa 0,0 l/m 0,0 km/h (0 Bft) 0 min 0,0 km/h (0 Bft)
06.06.2009 20:18 18,6 C 10,9 C 0,2 UV-I 0,0 C 53 % 88 % 0 % 999,1 hPa 0,0 l/m 0,0 km/h (0 Bft) 0 min 0,0 km/h (0 Bft)
06.06.2009 20:20 18,6 C 10,8 C 0,2 UV-I 0,0 C 53 % 88 % 0 % 999,1 hPa 0,0 l/m 0,0 km/h (0 Bft) 0 min 2,4 km/h (1 Bft)
06.06.2009 20:22 18,6 C 10,9 C 0,1 UV-I 0,0 C 53 % 88 % 0 % 999,1 hPa 0,0 l/m 0,0 km/h (0 Bft) 0 min 0,0 km/h (0 Bft)
06.06.2009 20:24 18,6 C 10,8 C 0,1 UV-I 0,0 C 53 % 88 % 0 % 999,1 hPa 0,0 l/m 0,0 km/h (0 Bft) 0 min 0,0 km/h (0 Bft)
06.06.2009 20:26 18,6 C 10,8 C 0,1 UV-I 0,0 C 53 % 88 % 0 % 999,1 hPa 0,0 l/m 0,0 km/h (0 Bft) 0 min 0,0 km/h (0 Bft)
06.06.2009 20:28 18,6 C 10,8 C 0,1 UV-I 0,0 C 53 % 88 % 0 % 999,1 hPa 0,0 l/m 0,0 km/h (0 Bft) 0 min 0,0 km/h (0 Bft)
06.06.2009 20:30 18,5 C 10,7 C 0,1 UV-I 0,0 C 53 % 88 % 0 % 999,1 hPa 0,0 l/m 0,0 km/h (0 Bft) 0 min 0,0 km/h (0 Bft)
06.06.2009 20:32 18,6 C 10,7 C 0,0 UV-I 0,0 C 53 % 88 % 0 % 999,1 hPa 0,0 l/m 0,0 km/h (0 Bft) 0 min 0,0 km/h (0 Bft)
06.06.2009 20:34 18,6 C 10,8 C 0,0 UV-I 0,0 C 53 % 88 % 0 % 999,1 hPa 0,0 l/m 0,0 km/h (0 Bft) 0 min 0,0 km/h (0 Bft)
06.06.2009 20:36 18,5 C 10,7 C 0,0 UV-I 0,0 C 53 % 88 % 0 % 999,1 hPa 0,0 l/m 0,0 km/h (0 Bft) 0 min 0,0 km/h (0 Bft)
06.06.2009 20:38 18,5 C 10,7 C 0,0 UV-I 0,0 C 53 % 87 % 0 % 999,1 hPa 0,0 l/m 0,0 km/h (0 Bft) 0 min 0,0 km/h (0 Bft)
06.06.2009 20:40 18,5 C 10,7 C 0,0 UV-I 0,0 C 53 % 87 % 0 % 999,1 hPa 0,0 l/m 0,0 km/h (0 Bft) 0 min 0,0 km/h (0 Bft)
06.06.2009 20:42 18,5 C 10,7 C 0,0 UV-I 0,0 C 53 % 88 % 0 % 999,1 hPa 0,0 l/m 0,0 km/h (0 Bft) 0 min 0,0 km/h (0 Bft)
06.06.2009 20:44 18,5 C 10,6 C 0,0 UV-I 0,0 C 53 % 88 % 0 % 999,1 hPa 0,0 l/m 0,0 km/h (0 Bft) 0 min 0,0 km/h (0 Bft)
06.06.2009 20:46 18,5 C 10,7 C 0,0 UV-I 0,0 C 53 % 88 % 0 % 999,1 hPa 0,0 l/m 0,0 km/h (0 Bft) 0 min 0,0 km/h (0 Bft)
06.06.2009 20:48 18,5 C 10,7 C 0,0 UV-I 0,0 C 53 % 88 % 0 % 999,1 hPa 0,0 l/m 0,0 km/h (0 Bft) 0 min 0,0 km/h (0 Bft)
06.06.2009 20:50 18,5 C 10,7 C 0,0 UV-I 0,0 C 53 % 88 % 0 % 999,1 hPa 0,0 l/m 0,0 km/h (0 Bft) 0 min 0,0 km/h (0 Bft)
06.06.2009 20:52 18,5 C 10,7 C 0,0 UV-I 0,0 C 53 % 88 % 0 % 999,1 hPa 0,0 l/m 0,0 km/h (0 Bft) 0 min 0,0 km/h (0 Bft)
06.06.2009 20:54 18,5 C 10,5 C 0,0 UV-I 0,0 C 53 % 88 % 0 % 999,1 hPa 0,0 l/m 0,0 km/h (0 Bft) 0 min 0,0 km/h (0 Bft)
06.06.2009 20:56 18,5 C 10,5 C 0,0 UV-I 0,0 C 53 % 88 % 0 % 999,1 hPa 0,0 l/m 0,0 km/h (0 Bft) 0 min 0,0 km/h (0 Bft)
06.06.2009 20:58 18,5 C 10,5 C 0,0 UV-I 0,0 C 53 % 88 % 0 % 998,9 hPa 0,0 l/m 0,0 km/h (0 Bft) 0 min 0,0 km/h (0 Bft)
06.06.2009 21:00 18,4 C 10,5 C 0,0 UV-I 0,0 C 53 % 88 % 0 % 998,9 hPa 0,0 l/m 0,0 km/h (0 Bft) 0 min 0,0 km/h (0 Bft)
06.06.2009 21:02 18,5 C 10,5 C 0,0 UV-I 0,0 C 53 % 88 % 0 % 998,9 hPa 0,0 l/m 0,0 km/h (0 Bft) 0 min 0,0 km/h (0 Bft)
06.06.2009 21:04 18,5 C 10,5 C 0,0 UV-I 0,0 C 53 % 88 % 0 % 998,9 hPa 0,0 l/m 0,0 km/h (0 Bft) 0 min 0,0 km/h (0 Bft)
06.06.2009 21:08 18,4 C 10,4 C 0,0 UV-I 0,0 C 53 % 88 % 0 % 998,9 hPa 0,0 l/m 0,0 km/h (0 Bft) 0 min 0,0 km/h (0 Bft)
06.06.2009 21:10 18,4 C 10,4 C 0,0 UV-I 0,0 C 53 % 88 % 0 % 998,9 hPa 0,0 l/m 0,0 km/h (0 Bft) 0 min 0,0 km/h (0 Bft)
06.06.2009 21:12 18,4 C 10,4 C 0,0 UV-I 0,0 C 53 % 88 % 0 % 998,9 hPa 0,0 l/m 0,0 km/h (0 Bft) 0 min 0,0 km/h (0 Bft)
06.06.2009 21:14 18,4 C 10,4 C 0,0 UV-I 0,0 C 53 % 88 % 0 % 998,9 hPa 0,0 l/m 0,0 km/h (0 Bft) 0 min 0,0 km/h (0 Bft)
06.06.2009 21:16 18,4 C 10,4 C 0,0 UV-I 0,0 C 53 % 88 % 0 % 998,9 hPa 0,0 l/m 0,0 km/h (0 Bft) 0 min 0,0 km/h (0 Bft)
06.06.2009 21:18 18,4 C 10,4 C 0,0 UV-I 0,0 C 53 % 88 % 0 % 999,1 hPa 0,0 l/m 0,0 km/h (0 Bft) 0 min 0,0 km/h (0 Bft)
06.06.2009 21:20 18,4 C 10,3 C 0,0 UV-I 0,0 C 53 % 88 % 0 % 999,1 hPa 0,0 l/m 0,0 km/h (0 Bft) 0 min 0,0 km/h (0 Bft)
06.06.2009 21:22 18,4 C 10,4 C 0,0 UV-I 0,0 C 53 % 88 % 0 % 999,1 hPa 0,0 l/m 0,0 km/h (0 Bft) 0 min 0,0 km/h (0 Bft)
06.06.2009 21:24 18,4 C 10,4 C 0,0 UV-I 0,0 C 53 % 88 % 0 % 999,1 hPa 0,0 l/m 0,0 km/h (0 Bft) 0 min 0,0 km/h (0 Bft)
06.06.2009 21:26 18,4 C 10,3 C 0,0 UV-I 0,0 C 53 % 88 % 0 % 999,1 hPa 0,0 l/m 0,0 km/h (0 Bft) 0 min 0,0 km/h (0 Bft)
06.06.2009 21:28 18,4 C 10,3 C 0,0 UV-I 0,0 C 53 % 88 % 0 % 999,1 hPa 0,0 l/m 0,0 km/h (0 Bft) 0 min 0,0 km/h (0 Bft)
06.06.2009 21:30 18,4 C 10,3 C 0,0 UV-I 0,0 C 53 % 88 % 0 % 999,1 hPa 0,0 l/m 0,0 km/h (0 Bft) 0 min 0,0 km/h (0 Bft)
06.06.2009 21:32 18,4 C 10,3 C 0,0 UV-I 0,0 C 53 % 88 % 0 % 999,1 hPa 0,0 l/m 0,0 km/h (0 Bft) 0 min 0,0 km/h (0 Bft)
06.06.2009 21:34 18,4 C 10,2 C 0,0 UV-I 0,0 C 53 % 88 % 0 % 999,1 hPa 0,0 l/m 0,0 km/h (0 Bft) 0 min 0,0 km/h (0 Bft)
06.06.2009 21:36 18,4 C 10,3 C 0,0 UV-I 0,0 C 53 % 88 % 0 % 999,1 hPa 0,0 l/m 0,0 km/h (0 Bft) 0 min 0,0 km/h (0 Bft)
06.06.2009 21:38 18,4 C 10,3 C 0,0 UV-I 0,0 C 53 % 88 % 0 % 998,9 hPa 0,0 l/m 0,0 km/h (0 Bft) 0 min 0,0 km/h (0 Bft)
06.06.2009 21:40 18,4 C 10,3 C 0,0 UV-I 0,0 C 53 % 88 % 0 % 998,9 hPa 0,0 l/m 0,0 km/h (0 Bft) 0 min 0,0 km/h (0 Bft)
06.06.2009 21:42 18,4 C 10,3 C 0,0 UV-I 0,0 C 53 % 88 % 0 % 998,9 hPa 0,0 l/m 0,0 km/h (0 Bft) 0 min 0,0 km/h (0 Bft)
06.06.2009 21:44 18,4 C 10,3 C 0,0 UV-I 0,0 C 53 % 88 % 0 % 998,9 hPa 0,0 l/m 0,0 km/h (0 Bft) 0 min 0,0 km/h (0 Bft)
06.06.2009 21:46 18,4 C 10,3 C 0,0 UV-I 0,0 C 53 % 88 % 0 % 998,9 hPa 0,0 l/m 0,0 km/h (0 Bft) 0 min 0,0 km/h (0 Bft)
06.06.2009 21:48 18,4 C 10,3 C 0,0 UV-I 0,0 C 53 % 88 % 0 % 998,9 hPa 0,0 l/m 0,0 km/h (0 Bft) 0 min 0,0 km/h (0 Bft)
06.06.2009 21:50 18,4 C 10,3 C 0,0 UV-I 0,0 C 53 % 88 % 0 % 998,9 hPa 0,0 l/m 0,0 km/h (0 Bft) 0 min 0,0 km/h (0 Bft)
06.06.2009 21:52 18,4 C 10,2 C 0,0 UV-I 0,0 C 53 % 88 % 0 % 998,9 hPa 0,0 l/m 0,0 km/h (0 Bft) 0 min 0,0 km/h (0 Bft)
06.06.2009 21:54 18,4 C 10,2 C 0,0 UV-I 0,0 C 53 % 88 % 0 % 998,9 hPa 0,0 l/m 0,0 km/h (0 Bft) 0 min 0,0 km/h (0 Bft)
06.06.2009 21:56 18,4 C 10,1 C 0,0 UV-I 0,0 C 53 % 88 % 0 % 998,9 hPa 0,0 l/m 0,0 km/h (0 Bft) 0 min 0,0 km/h (0 Bft)
06.06.2009 21:58 18,2 C 10,1 C 0,0 UV-I 0,0 C 53 % 88 % 0 % 999,2 hPa 0,0 l/m 0,0 km/h (0 Bft) 0 min 0,0 km/h (0 Bft)
06.06.2009 22:00 18,2 C 10,1 C 0,0 UV-I 0,0 C 53 % 88 % 0 % 999,2 hPa 0,0 l/m 0,0 km/h (0 Bft) 0 min 0,0 km/h (0 Bft)
06.06.2009 22:02 18,2 C 10,1 C 0,0 UV-I 0,0 C 53 % 88 % 0 % 999,2 hPa 0,0 l/m 0,0 km/h (0 Bft) 0 min 0,0 km/h (0 Bft)
06.06.2009 22:04 18,2 C 10,1 C 0,0 UV-I 0,0 C 53 % 88 % 0 % 999,2 hPa 0,0 l/m 0,0 km/h (0 Bft) 0 min 0,0 km/h (0 Bft)
06.06.2009 22:06 18,2 C 10,1 C 0,0 UV-I 0,0 C 53 % 88 % 0 % 999,2 hPa 0,0 l/m 0,0 km/h (0 Bft) 0 min 0,0 km/h (0 Bft)
06.06.2009 22:08 18,2 C 10,0 C 0,0 UV-I 0,0 C 53 % 88 % 0 % 999,2 hPa 0,0 l/m 0,0 km/h (0 Bft) 0 min 0,0 km/h (0 Bft)
06.06.2009 22:10 18,2 C 10,0 C 0,0 UV-I 0,0 C 53 % 88 % 0 % 999,2 hPa 0,0 l/m 0,0 km/h (0 Bft) 0 min 0,0 km/h (0 Bft)
06.06.2009 22:12 18,3 C 10,0 C 0,0 UV-I 0,0 C 53 % 88 % 0 % 999,2 hPa 0,0 l/m 0,0 km/h (0 Bft) 0 min 0,0 km/h (0 Bft)
06.06.2009 22:14 18,2 C 10,0 C 0,0 UV-I 0,0 C 53 % 88 % 0 % 999,2 hPa 0,0 l/m 0,0 km/h (0 Bft) 0 min 0,0 km/h (0 Bft)
06.06.2009 22:16 18,2 C 10,0 C 0,0 UV-I 0,0 C 53 % 88 % 0 % 999,2 hPa 0,0 l/m 0,2 km/h (0 Bft) 0 min 0,0 km/h (0 Bft)
06.06.2009 22:18 18,2 C 10,1 C 0,0 UV-I 0,0 C 53 % 88 % 0 % 998,9 hPa 0,0 l/m 0,0 km/h (0 Bft) 0 min 0,0 km/h (0 Bft)
06.06.2009 22:20 18,2 C 10,0 C 0,0 UV-I 0,0 C 53 % 88 % 0 % 998,9 hPa 0,0 l/m 0,0 km/h (0 Bft) 0 min 0,0 km/h (0 Bft)
06.06.2009 22:22 18,3 C 10,1 C 0,0 UV-I 0,0 C 53 % 88 % 0 % 998,9 hPa 0,0 l/m 0,0 km/h (0 Bft) 0 min 0,0 km/h (0 Bft)
06.06.2009 22:24 18,2 C 10,1 C 0,0 UV-I 0,0 C 53 % 88 % 0 % 998,9 hPa 0,0 l/m 0,0 km/h (0 Bft) 0 min 0,0 km/h (0 Bft)
06.06.2009 22:26 18,3 C 10,0 C 0,0 UV-I 0,0 C 53 % 88 % 0 % 998,9 hPa 0,0 l/m 0,0 km/h (0 Bft) 0 min 0,0 km/h (0 Bft)
06.06.2009 22:28 18,3 C 10,0 C 0,0 UV-I 0,0 C 53 % 88 % 0 % 998,9 hPa 0,0 l/m 0,0 km/h (0 Bft) 0 min 0,0 km/h (0 Bft)
06.06.2009 22:30 18,3 C 10,0 C 0,0 UV-I 0,0 C 53 % 88 % 0 % 998,9 hPa 0,0 l/m 0,0 km/h (0 Bft) 0 min 0,0 km/h (0 Bft)
06.06.2009 22:32 18,3 C 10,0 C 0,0 UV-I 0,0 C 53 % 88 % 0 % 998,9 hPa 0,0 l/m 0,0 km/h (0 Bft) 0 min 0,0 km/h (0 Bft)
06.06.2009 22:34 18,3 C 10,0 C 0,0 UV-I 0,0 C 53 % 88 % 0 % 998,9 hPa 0,0 l/m 0,0 km/h (0 Bft) 0 min 0,0 km/h (0 Bft)
06.06.2009 22:36 18,3 C 9,9 C 0,0 UV-I 0,0 C 53 % 88 % 0 % 998,9 hPa 0,0 l/m 0,0 km/h (0 Bft) 0 min 0,0 km/h (0 Bft)
06.06.2009 22:38 18,3 C 9,9 C 0,0 UV-I 0,0 C 53 % 89 % 0 % 999,4 hPa 0,0 l/m 0,0 km/h (0 Bft) 0 min 0,0 km/h (0 Bft)
06.06.2009 22:40 18,3 C 9,9 C 0,0 UV-I 0,0 C 53 % 89 % 0 % 999,4 hPa 0,0 l/m 0,0 km/h (0 Bft) 0 min 0,0 km/h (0 Bft)
06.06.2009 22:42 18,3 C 9,9 C 0,0 UV-I 0,0 C 53 % 89 % 0 % 999,4 hPa 0,0 l/m 0,0 km/h (0 Bft) 0 min 0,0 km/h (0 Bft)
06.06.2009 22:44 18,3 C 9,9 C 0,0 UV-I 0,0 C 53 % 89 % 0 % 999,4 hPa 0,0 l/m 0,0 km/h (0 Bft) 0 min 0,0 km/h (0 Bft)
06.06.2009 22:46 18,3 C 9,9 C 0,0 UV-I 0,0 C 53 % 89 % 0 % 999,4 hPa 0,0 l/m 0,0 km/h (0 Bft) 0 min 0,0 km/h (0 Bft)
06.06.2009 22:48 18,3 C 9,9 C 0,0 UV-I 0,0 C 53 % 89 % 0 % 999,4 hPa 0,0 l/m 0,0 km/h (0 Bft) 0 min 0,0 km/h (0 Bft)
06.06.2009 22:50 18,2 C 9,9 C 0,0 UV-I 0,0 C 53 % 89 % 0 % 999,4 hPa 0,0 l/m 0,0 km/h (0 Bft) 0 min 0,0 km/h (0 Bft)
06.06.2009 22:52 18,3 C 9,9 C 0,0 UV-I 0,0 C 54 % 89 % 0 % 999,4 hPa 0,0 l/m 0,0 km/h (0 Bft) 0 min 0,0 km/h (0 Bft)
06.06.2009 22:54 18,3 C 9,9 C 0,0 UV-I 0,0 C 54 % 89 % 0 % 999,4 hPa 0,0 l/m 0,0 km/h (0 Bft) 0 min 0,0 km/h (0 Bft)
06.06.2009 22:56 18,3 C 9,9 C 0,0 UV-I 0,0 C 54 % 89 % 0 % 999,4 hPa 0,0 l/m 0,0 km/h (0 Bft) 0 min 0,0 km/h (0 Bft)
06.06.2009 22:58 18,3 C 9,9 C 0,0 UV-I 0,0 C 54 % 89 % 0 % 999,2 hPa 0,0 l/m 0,0 km/h (0 Bft) 0 min 0,0 km/h (0 Bft)
06.06.2009 23:00 18,3 C 9,9 C 0,0 UV-I 0,0 C 54 % 89 % 0 % 999,2 hPa 0,0 l/m 0,0 km/h (0 Bft) 0 min 0,0 km/h (0 Bft)
06.06.2009 23:02 18,3 C 9,9 C 0,0 UV-I 0,0 C 54 % 89 % 0 % 999,2 hPa 0,0 l/m 0,0 km/h (0 Bft) 0 min 0,0 km/h (0 Bft)
06.06.2009 23:04 18,3 C 9,9 C 0,0 UV-I 0,0 C 54 % 89 % 0 % 999,2 hPa 0,0 l/m 0,0 km/h (0 Bft) 0 min 0,0 km/h (0 Bft)
06.06.2009 23:06 18,3 C 9,8 C 0,0 UV-I 0,0 C 54 % 89 % 0 % 999,2 hPa 0,0 l/m 0,0 km/h (0 Bft) 0 min 0,0 km/h (0 Bft)
06.06.2009 23:08 18,3 C 9,9 C 0,0 UV-I 0,0 C 54 % 89 % 0 % 999,2 hPa 0,0 l/m 0,0 km/h (0 Bft) 0 min 0,0 km/h (0 Bft)
06.06.2009 23:10 18,2 C 9,9 C 0,0 UV-I 0,0 C 54 % 89 % 0 % 999,2 hPa 0,0 l/m 0,0 km/h (0 Bft) 0 min 0,0 km/h (0 Bft)
06.06.2009 23:12 18,2 C 9,8 C 0,0 UV-I 0,0 C 54 % 89 % 0 % 999,2 hPa 0,0 l/m 0,0 km/h (0 Bft) 0 min 0,0 km/h (0 Bft)
06.06.2009 23:14 18,3 C 9,8 C 0,0 UV-I 0,0 C 54 % 89 % 0 % 999,2 hPa 0,0 l/m 0,0 km/h (0 Bft) 0 min 0,0 km/h (0 Bft)
06.06.2009 23:16 18,2 C 9,8 C 0,0 UV-I 0,0 C 54 % 89 % 0 % 999,2 hPa 0,0 l/m 0,0 km/h (0 Bft) 0 min 0,0 km/h (0 Bft)
06.06.2009 23:18 18,2 C 9,8 C 0,0 UV-I 0,0 C 54 % 89 % 0 % 999,2 hPa 0,0 l/m 0,0 km/h (0 Bft) 0 min 0,0 km/h (0 Bft)
06.06.2009 23:20 18,2 C 9,9 C 0,0 UV-I 0,0 C 54 % 89 % 0 % 999,2 hPa 0,0 l/m 0,0 km/h (0 Bft) 0 min 0,0 km/h (0 Bft)
06.06.2009 23:22 18,2 C 9,9 C 0,0 UV-I 0,0 C 54 % 89 % 0 % 999,2 hPa 0,0 l/m 0,0 km/h (0 Bft) 0 min 0,0 km/h (0 Bft)
06.06.2009 23:24 18,2 C 9,9 C 0,0 UV-I 0,0 C 54 % 89 % 0 % 999,2 hPa 0,0 l/m 0,0 km/h (0 Bft) 0 min 0,0 km/h (0 Bft)
06.06.2009 23:26 18,2 C 9,9 C 0,0 UV-I 0,0 C 54 % 89 % 0 % 999,2 hPa 0,0 l/m 0,0 km/h (0 Bft) 0 min 0,0 km/h (0 Bft)
06.06.2009 23:28 18,2 C 9,8 C 0,0 UV-I 0,0 C 54 % 89 % 0 % 999,2 hPa 0,0 l/m 0,0 km/h (0 Bft) 0 min 0,0 km/h (0 Bft)
06.06.2009 23:30 18,2 C 9,9 C 0,0 UV-I 0,0 C 54 % 89 % 0 % 999,2 hPa 0,0 l/m 0,0 km/h (0 Bft) 0 min 0,0 km/h (0 Bft)
06.06.2009 23:32 18,2 C 9,8 C 0,0 UV-I 0,0 C 54 % 89 % 0 % 999,2 hPa 0,0 l/m 0,0 km/h (0 Bft) 0 min 0,0 km/h (0 Bft)
06.06.2009 23:34 18,2 C 9,8 C 0,0 UV-I 0,0 C 54 % 89 % 0 % 999,2 hPa 0,0 l/m 0,0 km/h (0 Bft) 0 min 0,0 km/h (0 Bft)
06.06.2009 23:36 18,2 C 9,8 C 0,0 UV-I 0,0 C 54 % 89 % 0 % 999,2 hPa 0,0 l/m 0,0 km/h (0 Bft) 0 min 0,0 km/h (0 Bft)
06.06.2009 23:38 18,2 C 9,7 C 0,0 UV-I 0,0 C 54 % 89 % 0 % 999,3 hPa 0,0 l/m 0,0 km/h (0 Bft) 0 min 0,0 km/h (0 Bft)
06.06.2009 23:40 18,2 C 9,8 C 0,0 UV-I 0,0 C 54 % 89 % 0 % 999,3 hPa 0,0 l/m 0,0 km/h (0 Bft) 0 min 0,0 km/h (0 Bft)
06.06.2009 23:42 18,2 C 9,7 C 0,0 UV-I 0,0 C 54 % 89 % 0 % 999,3 hPa 0,0 l/m 0,0 km/h (0 Bft) 0 min 0,0 km/h (0 Bft)
06.06.2009 23:44 18,2 C 9,7 C 0,0 UV-I 0,0 C 54 % 89 % 0 % 999,3 hPa 0,0 l/m 0,0 km/h (0 Bft) 0 min 0,0 km/h (0 Bft)
06.06.2009 23:46 18,2 C 9,7 C 0,0 UV-I 0,0 C 54 % 90 % 0 % 999,3 hPa 0,0 l/m 0,0 km/h (0 Bft) 0 min 0,0 km/h (0 Bft)
06.06.2009 23:48 18,2 C 9,7 C 0,0 UV-I 0,0 C 54 % 90 % 0 % 999,3 hPa 0,0 l/m 0,0 km/h (0 Bft) 0 min 0,0 km/h (0 Bft)
06.06.2009 23:50 18,2 C 9,7 C 0,0 UV-I 0,0 C 54 % 90 % 0 % 999,3 hPa 0,0 l/m 0,0 km/h (0 Bft) 0 min 0,0 km/h (0 Bft)
06.06.2009 23:52 18,2 C 9,7 C 0,0 UV-I 0,0 C 54 % 90 % 0 % 999,3 hPa 0,0 l/m 0,0 km/h (0 Bft) 0 min 0,0 km/h (0 Bft)
06.06.2009 23:54 18,2 C 9,7 C 0,0 UV-I 0,0 C 54 % 90 % 0 % 999,3 hPa 0,0 l/m 0,0 km/h (0 Bft) 0 min 0,0 km/h (0 Bft)
06.06.2009 23:56 18,2 C 9,7 C 0,0 UV-I 0,0 C 54 % 90 % 0 % 999,3 hPa 0,0 l/m 0,0 km/h (0 Bft) 0 min 0,0 km/h (0 Bft)
06.06.2009 23:58 18,2 C 9,7 C 0,0 UV-I 0,0 C 54 % 90 % 0 % 999,1 hPa 0,0 l/m 0,0 km/h (0 Bft) 0 min 0,0 km/h (0 Bft)
_ Min-Zeit 05:36 04:50 00:00 00:00 13:44 12:28 00:00 19:58 - 00:00 - 00:00
Minimum _ 17,6 C 6,6 C 0,0 UV-I 0,0 C 42 % 52 % 0 % 998,8 hPa - 0,0 km/h (0 Bft) - 0,0 km/h (0 Bft)
_ Max-Zeit 13:28 12:50 11:52 11:54 22:52 23:46 11:48 00:18 15:34 12:00 11:44 12:42
Maximum _ 19,4 C 15,7 C 8,5 UV-I 5,7 C 54 % 90 % 100 % 1006,5 hPa 0,2 l/m 1,7 km/h
S-SO (1 Bft)
2 min 7,9 km/h
W-SW (2 Bft)
Durchschnitt _ 18,4 C 10,6 C 1,0 UV-I 0,4 C 48 % 76 % 12 % 1000,9 hPa #5,1 l/m 0,2 km/h (0 Bft) #32 min. 0,3 km/h (0 Bft)
© 2012 W. Hausmann